DL9MFL-6 Weather Reports


time (UTC)temp
C
wind
direction
speed
KPH
gust
KPH
rain 1hr
cm
rain 24hr
cm
rain mn
cm
humidity
%
barometer
mb
20260831204430 17 227 8.0 14.5 0.00 0.36 0.36 61 1019.3
20260831204328 17 267 8.0 16.1 0.00 0.36 0.36 61 1019.3
20260831204320 17 262 8.0 16.1 0.00 0.36 0.36 61 1019.3
20260831204316 17 277 8.0 16.1 0.00 0.36 0.36 61 1019.3
20260831204312 17 277 8.0 16.1 0.00 0.36 0.36 61 1019.4
20260831204047 17 327 8.0 16.1 0.00 0.36 0.36 62 1019.4
20260831204043 17 256 8.0 16.1 0.00 0.36 0.36 61 1019.3
20260831204038 17 258 8.0 16.1 0.00 0.36 0.36 61 1019.3
20260831203730 17 263 8.0 16.1 0.00 0.36 0.36 61 1019.3
20260831203629 17 244 6.4 16.1 0.00 0.36 0.36 61 1019.3
20260831203529 17 265 6.4 16.1 0.00 0.36 0.36 61 1019.3
20260831203429 17 267 6.4 16.1 0.00 0.36 0.36 61 1019.3
20260831203329 17 277 6.4 16.1 0.00 0.36 0.36 61 1019.3
20260831203229 17 267 6.4 16.1 0.00 0.36 0.36 61 1019.3
20260831203129 17 271 6.4 16.1 0.00 0.36 0.36 61 1019.3
20260831203029 17 255 6.4 16.1 0.00 0.36 0.36 61 1019.3
20260831202931 18 302 8.0 14.5 0.00 0.36 0.36 61 1019.1
20260831202829 18 275 8.0 14.5 0.00 0.36 0.36 61 1019.2
20260831202729 18 263 8.0 14.5 0.00 0.36 0.36 61 1019.1
20260831202629 18 292 8.0 14.5 0.00 0.36 0.36 61 1019.1
20260831202529 18 281 8.0 14.5 0.00 0.36 0.36 61 1019.2
20260831202429 18 286 8.0 14.5 0.00 0.36 0.36 61 1019.1
20260831202329 18 287 8.0 16.1 0.00 0.36 0.36 61 1019.1
20260831202230 18 270 8.0 16.1 0.00 0.36 0.36 60 1019.0
20260831202129 18 269 8.0 16.1 0.00 0.36 0.36 60 1019.0
20260831202048 18 266 8.0 16.1 0.00 0.36 0.36 60 1019.0
20260831202044 18 275 8.0 16.1 0.00 0.36 0.36 61 1019.0
20260831202040 18 267 8.0 16.1 0.00 0.36 0.36 61 1019.0
20260831201729 18 287 8.0 16.1 0.00 0.36 0.36 60 1018.9
20260831201629 18 283 6.4 16.1 0.00 0.36 0.36 60 1018.9
20260831201528 18 266 6.4 16.1 0.00 0.36 0.36 60 1018.9
20260831201428 18 284 6.4 16.1 0.00 0.36 0.36 60 1018.9
20260831201329 18 282 6.4 14.5 0.00 0.36 0.36 60 1018.9
20260831201228 18 281 6.4 14.5 0.00 0.36 0.36 61 1018.8
20260831201128 18 296 6.4 14.5 0.00 0.36 0.36 60 1018.8
20260831201025 18 297 6.4 14.5 0.00 0.36 0.36 60 1018.8
20260831200924 18 264 6.4 14.5 0.00 0.36 0.36 60 1018.8
20260831200829 18 293 6.4 14.5 0.00 0.36 0.36 60 1018.8
20260831200819 18 288 6.4 14.5 0.00 0.36 0.36 60 1018.8
20260831200718 18 275 6.4 14.5 0.00 0.36 0.36 60 1018.7
20260831200618 18 257 6.4 16.1 0.00 0.36 0.36 60 1018.7
20260831200519 18 286 8.0 16.1 0.00 0.36 0.36 60 1018.7
20260831200418 18 257 6.4 16.1 0.00 0.36 0.36 60 1018.7
20260831200330 18 252 6.4 16.1 0.00 0.36 0.36 60 1018.7
20260831200316 18 250 6.4 16.1 0.00 0.36 0.36 60 1018.6
20260831200216 18 271 8.0 16.1 0.00 0.36 0.36 60 1018.6
20260831200116 18 290 8.0 16.1 0.00 0.36 0.36 60 1018.7
20260831200052 18 269 8.0 17.7 0.00 0.36 0.36 59 1018.6
20260831200044 18 257 8.0 17.7 0.00 0.36 0.36 60 1018.6
20260831200040 18 252 8.0 17.7 0.00 0.36 0.36 59 1018.6
20260831195812 18 269 8.0 17.7 0.00 0.36 0.36 59 1018.6
20260831195712 18 268 8.0 17.7 0.00 0.36 0.36 59 1018.5
20260831195612 18 280 8.0 17.7 0.00 0.36 0.36 59 1018.5
20260831195512 18 250 8.0 17.7 0.00 0.36 0.36 59 1018.5
20260831195438 18 252 8.0 17.7 0.00 0.36 0.36 59 1018.5
20260831195434 18 268 8.0 17.7 0.00 0.36 0.36 59 1018.5
20260831195322 18 271 8.0 17.7 0.00 0.36 0.36 59 1018.4
20260831195208 18 253 8.0 17.7 0.00 0.36 0.36 59 1018.4
20260831195108 18 263 8.0 17.7 0.00 0.36 0.36 59 1018.4
20260831195053 18 261 8.0 14.5 0.00 0.36 0.36 59 1018.3
20260831195044 18 257 8.0 12.9 0.00 0.36 0.36 59 1018.4
20260831195040 18 302 8.0 14.5 0.00 0.36 0.36 59 1018.3
20260831194804 18 251 8.0 14.5 0.00 0.36 0.36 59 1018.3
20260831194704 18 261 8.0 14.5 0.00 0.36 0.36 60 1018.3
20260831194602 18 263 8.0 14.5 0.00 0.36 0.36 60 1018.3
20260831194502 18 251 8.0 14.5 0.00 0.36 0.36 60 1018.3
20260831194403 18 284 8.0 14.5 0.00 0.36 0.36 60 1018.2
20260831194329 18 277 8.0 14.5 0.00 0.36 0.36 60 1018.2
20260831194302 18 246 8.0 14.5 0.00 0.36 0.36 60 1018.3
20260831194202 18 252 8.0 14.5 0.00 0.36 0.36 60 1018.3
20260831194102 18 283 8.0 14.5 0.00 0.36 0.36 60 1018.3
20260831194002 18 259 6.4 14.5 0.00 0.36 0.36 60 1018.3
20260831193901 18 272 6.4 14.5 0.00 0.36 0.36 60 1018.3
20260831193830 18 265 6.4 14.5 0.00 0.36 0.36 60 1018.3
20260831193801 18 248 6.4 14.5 0.00 0.36 0.36 60 1018.3
20260831193701 18 271 6.4 14.5 0.00 0.36 0.36 61 1018.3
20260831193603 18 246 4.8 14.5 0.00 0.36 0.36 61 1018.3
20260831193501 18 263 4.8 14.5 0.00 0.36 0.36 61 1018.3
20260831193401 18 270 4.8 11.3 0.00 0.36 0.36 61 1018.3
20260831193329 18 259 4.8 9.7 0.00 0.36 0.36 61 1018.3
20260831193301 18 258 4.8 9.7 0.00 0.36 0.36 61 1018.2
20260831193203 18 295 4.8 9.7 0.00 0.36 0.36 62 1018.3
20260831193101 18 254 4.8 9.7 0.00 0.36 0.36 62 1018.2
20260831193026 18 291 3.2 6.4 0.00 0.36 0.36 63 1018.2
20260831193022 18 267 3.2 4.8 0.00 0.36 0.36 61 1018.0
20260831193017 18 288 4.8 8.0 0.00 0.36 0.36 63 1018.2
20260831193013 18 269 4.8 8.0 0.00 0.36 0.36 63 1018.2
20260831193009 18 264 4.8 8.0 0.00 0.36 0.36 63 1018.2
20260831193005 18 264 3.2 8.0 0.00 0.36 0.36 63 1018.2
20260831192750 18 273 3.2 8.0 0.00 0.36 0.36 63 1018.2
20260831192746 18 287 3.2 8.0 0.00 0.36 0.36 63 1018.2
20260831192738 18 280 3.2 6.4 0.00 0.36 0.36 62 1018.1
20260831192734 18 280 3.2 6.4 0.00 0.36 0.36 62 1018.1
20260831192305 18 291 3.2 6.4 0.00 0.36 0.36 63 1018.2
20260831192259 18 286 3.2 6.4 0.00 0.36 0.36 62 1018.1
20260831192255 18 286 3.2 6.4 0.00 0.36 0.36 62 1018.1
20260831192247 18 286 3.2 4.8 0.00 0.36 0.36 62 1018.0
20260831192243 18 286 3.2 4.8 0.00 0.36 0.36 62 1018.0
20260831191812 18 286 3.2 4.8 0.00 0.36 0.36 62 1018.0
20260831191808 18 286 3.2 4.8 0.00 0.36 0.36 61 1018.0
20260831191804 18 267 3.2 4.8 0.00 0.36 0.36 61 1018.0
20260831191543 18 267 3.2 4.8 0.00 0.36 0.36 61 1018.0
20260831191539 18 267 3.2 4.8 0.00 0.36 0.36 61 1018.0
20260831191258 18 267 3.2 4.8 0.00 0.36 0.36 61 1017.9
20260831191158 18 267 3.2 4.8 0.00 0.36 0.36 60 1017.9
20260831191056 19 267 3.2 4.8 0.00 0.36 0.36 60 1017.9
20260831190954 19 267 3.2 4.8 0.00 0.36 0.36 60 1017.9
20260831190830 19 267 3.2 4.8 0.00 0.36 0.36 60 1017.9
20260831190748 19 267 3.2 4.8 0.00 0.36 0.36 60 1017.9
20260831190648 19 253 3.2 4.8 0.00 0.36 0.36 60 1017.8
20260831190559 19 253 3.2 4.8 0.00 0.36 0.36 60 1017.8
20260831190545 19 253 3.2 8.0 0.00 0.36 0.36 60 1017.8
20260831190541 19 253 3.2 8.0 0.00 0.36 0.36 59 1017.6
20260831190247 19 253 3.2 8.0 0.00 0.36 0.36 59 1017.6
20260831190146 19 253 3.2 9.7 0.00 0.36 0.36 60 1017.6
20260831190044 19 253 4.8 9.7 0.00 0.36 0.36 59 1017.6
20260831185941 19 253 4.8 9.7 0.00 0.36 0.36 59 1017.6
20260831185830 19 252 4.8 9.7 0.00 0.36 0.36 58 1017.5
20260831185736 19 253 4.8 9.7 0.00 0.36 0.36 58 1017.5
20260831185636 19 253 4.8 11.3 0.00 0.36 0.36 58 1017.5
20260831185536 19 252 4.8 11.3 0.00 0.36 0.36 58 1017.6
20260831185436 19 250 4.8 11.3 0.00 0.36 0.36 58 1017.5
20260831185343 19 248 6.4 11.3 0.00 0.36 0.36 57 1017.4
20260831185328 19 266 6.4 11.3 0.00 0.36 0.36 57 1017.4
20260831185234 19 267 6.4 11.3 0.00 0.36 0.36 58 1017.5
20260831185132 19 266 6.4 11.3 0.00 0.36 0.36 58 1017.5
20260831185052 20 248 6.4 11.3 0.00 0.36 0.36 58 1017.4
20260831185044 20 269 4.8 11.3 0.00 0.36 0.36 57 1017.4
20260831185040 20 273 6.4 11.3 0.00 0.36 0.36 57 1017.4
20260831184732 20 251 6.4 11.3 0.00 0.36 0.36 57 1017.4
20260831184632 20 252 6.4 9.7 0.00 0.36 0.36 57 1017.3
20260831184532 20 250 4.8 9.7 0.00 0.36 0.36 57 1017.3
20260831184432 20 263 4.8 11.3 0.00 0.36 0.36 57 1017.3
20260831184329 20 270 4.8 11.3 0.00 0.36 0.36 57 1017.2
20260831184231 20 273 4.8 11.3 0.00 0.36 0.36 57 1017.2
20260831184130 20 253 4.8 11.3 0.00 0.36 0.36 56 1017.2
20260831184029 20 261 4.8 11.3 0.00 0.36 0.36 57 1017.2
20260831183929 20 271 6.4 12.9 0.00 0.36 0.36 57 1017.1
20260831183830 20 259 6.4 12.9 0.00 0.36 0.36 56 1017.1
20260831183730 20 265 6.4 12.9 0.00 0.36 0.36 56 1017.0
20260831183630 20 246 6.4 12.9 0.00 0.36 0.36 56 1017.0
20260831183529 20 242 6.4 12.9 0.00 0.36 0.36 56 1017.0
20260831183429 20 265 8.0 12.9 0.00 0.36 0.36 56 1017.0
20260831183329 20 274 8.0 12.9 0.00 0.36 0.36 56 1017.0
20260831183229 20 267 8.0 12.9 0.00 0.36 0.36 56 1016.9
20260831183129 20 276 8.0 12.9 0.00 0.36 0.36 56 1016.9
20260831183029 20 246 8.0 14.5 0.00 0.36 0.36 56 1016.8
20260831182929 20 263 8.0 14.5 0.00 0.36 0.36 56 1016.8
20260831182829 20 269 8.0 14.5 0.00 0.36 0.36 56 1016.8
20260831182729 20 260 8.0 14.5 0.00 0.36 0.36 56 1016.8
20260831182630 20 251 8.0 14.5 0.00 0.36 0.36 56 1016.8
20260831182529 20 288 8.0 14.5 0.00 0.36 0.36 56 1016.7
20260831182429 20 250 8.0 14.5 0.00 0.36 0.36 56 1016.8
20260831182330 20 261 8.0 14.5 0.00 0.36 0.36 55 1016.7
20260831182229 20 231 8.0 14.5 0.00 0.36 0.36 55 1016.7
20260831182129 20 246 8.0 14.5 0.00 0.36 0.36 55 1016.7
20260831182029 20 273 8.0 14.5 0.00 0.36 0.36 55 1016.7
20260831181929 20 278 8.0 12.9 0.00 0.36 0.36 55 1016.7
20260831181829 20 250 6.4 12.9 0.00 0.36 0.36 55 1016.6
20260831181729 20 247 6.4 12.9 0.00 0.36 0.36 55 1016.7
20260831181629 20 256 6.4 12.9 0.00 0.36 0.36 55 1016.6
20260831181528 20 254 6.4 12.9 0.00 0.36 0.36 54 1016.6
20260831181425 20 243 6.4 12.9 0.00 0.36 0.36 54 1016.6
20260831181328 20 244 6.4 12.9 0.00 0.36 0.36 54 1016.6
20260831181324 20 248 6.4 12.9 0.00 0.36 0.36 54 1016.6
20260831181224 20 262 6.4 12.9 0.00 0.36 0.36 54 1016.6
20260831181124 20 254 6.4 12.9 0.00 0.36 0.36 54 1016.6
20260831181024 20 264 8.0 12.9 0.00 0.36 0.36 54 1016.6
20260831180920 20 246 8.0 11.3 0.00 0.36 0.36 54 1016.5
20260831180829 20 263 8.0 12.9 0.00 0.36 0.36 54 1016.5
20260831180818 20 264 8.0 12.9 0.00 0.36 0.36 54 1016.5
20260831180718 21 256 8.0 12.9 0.00 0.36 0.36 54 1016.5
20260831180618 21 272 8.0 12.9 0.00 0.36 0.36 54 1016.5
20260831180555 21 259 8.0 14.5 0.00 0.36 0.36 53 1016.5
20260831180550 21 259 8.0 12.9 0.00 0.36 0.36 54 1016.5
20260831180543 21 259 8.0 12.9 0.00 0.36 0.36 53 1016.5
20260831180314 21 256 8.0 14.5 0.00 0.36 0.36 53 1016.5
20260831180213 21 298 9.7 14.5 0.00 0.36 0.36 53 1016.4
20260831180114 21 248 9.7 14.5 0.00 0.36 0.36 53 1016.5
20260831180053 21 244 9.7 19.3 0.00 0.36 0.36 52 1016.4
20260831180048 21 286 9.7 14.5 0.00 0.36 0.36 52 1016.4
20260831180039 21 257 9.7 14.5 0.00 0.36 0.36 52 1016.4
20260831175810 21 270 9.7 19.3 0.00 0.36 0.36 52 1016.4
20260831175710 21 261 11.3 19.3 0.00 0.36 0.36 52 1016.4
20260831175608 21 273 11.3 19.3 0.00 0.36 0.36 52 1016.4
20260831175506 21 268 11.3 19.3 0.00 0.36 0.36 52 1016.4
20260831175402 21 244 11.3 19.3 0.00 0.36 0.36 52 1016.4
20260831175324 21 245 11.3 19.3 0.00 0.36 0.36 52 1016.4
20260831175302 21 273 11.3 19.3 0.00 0.36 0.36 52 1016.4
20260831175201 21 265 11.3 19.3 0.00 0.36 0.36 52 1016.4
20260831175101 21 244 11.3 19.3 0.00 0.36 0.36 52 1016.3
20260831175003 21 274 11.3 19.3 0.00 0.36 0.36 52 1016.3
20260831174902 21 260 11.3 19.3 0.00 0.36 0.36 51 1016.3
20260831174817 21 265 11.3 19.3 0.00 0.36 0.36 51 1016.3
20260831174802 21 261 11.3 19.3 0.00 0.36 0.36 51 1016.3
20260831174702 21 238 11.3 19.3 0.00 0.36 0.36 51 1016.3
20260831174602 21 257 11.3 19.3 0.00 0.36 0.36 51 1016.2
20260831174536 21 267 11.3 19.3 0.00 0.36 0.36 51 1016.2
20260831174530 21 269 11.3 19.3 0.00 0.36 0.36 51 1016.2
20260831174522 21 268 11.3 19.3 0.00 0.36 0.36 51 1016.1
20260831174302 21 288 11.3 19.3 0.00 0.36 0.36 51 1016.2
20260831174202 21 274 11.3 19.3 0.00 0.36 0.36 51 1016.1
20260831174102 21 273 11.3 20.9 0.00 0.36 0.36 51 1016.1
20260831174002 21 232 12.9 20.9 0.00 0.36 0.36 51 1016.1
20260831173902 21 240 12.9 20.9 0.00 0.36 0.36 50 1016.1
20260831173813 21 242 12.9 20.9 0.00 0.36 0.36 50 1016.0
20260831173801 21 254 12.9 20.9 0.00 0.36 0.36 50 1016.0
20260831173700 21 274 12.9 20.9 0.00 0.36 0.36 51 1016.0
20260831173600 21 280 12.9 20.9 0.00 0.36 0.36 50 1016.1
20260831173501 21 252 12.9 20.9 0.00 0.36 0.36 50 1016.1
20260831173400 21 252 12.9 20.9 0.00 0.36 0.36 49 1016.0
20260831173312 21 265 12.9 20.9 0.00 0.36 0.36 50 1016.0
20260831173300 21 258 12.9 20.9 0.00 0.36 0.36 50 1016.0
20260831173155 21 244 12.9 20.9 0.00 0.36 0.36 50 1016.1
20260831173055 21 261 12.9 20.9 0.00 0.36 0.36 50 1016.0
20260831173035 22 242 11.3 20.9 0.00 0.36 0.36 50 1016.0
20260831173031 22 272 12.9 20.9 0.00 0.36 0.36 50 1016.0
20260831173023 22 265 11.3 20.9 0.00 0.36 0.36 50 1016.0
20260831172754 22 291 11.3 20.9 0.00 0.36 0.36 50 1016.0
20260831172649 22 243 11.3 20.9 0.00 0.36 0.36 50 1016.0
20260831172550 22 284 11.3 20.9 0.00 0.36 0.36 50 1016.0
20260831172535 22 256 11.3 19.3 0.00 0.36 0.36 49 1015.8
20260831172530 22 271 11.3 19.3 0.00 0.36 0.36 50 1016.0
20260831172522 22 236 11.3 19.3 0.00 0.36 0.36 50 1016.0
20260831172247 22 262 11.3 19.3 0.00 0.36 0.36 49 1015.8
20260831172146 22 264 11.3 19.3 0.00 0.36 0.36 48 1015.8
20260831172046 22 265 11.3 19.3 0.00 0.36 0.36 49 1015.8
20260831171946 22 264 11.3 19.3 0.00 0.36 0.36 48 1015.8
20260831171844 22 248 12.9 19.3 0.00 0.36 0.36 48 1015.8
20260831171812 22 242 12.9 20.9 0.00 0.36 0.36 48 1015.8
20260831171741 22 255 12.9 20.9 0.00 0.36 0.36 48 1015.8
20260831171636 22 275 12.9 20.9 0.00 0.36 0.36 48 1015.8
20260831171536 22 246 11.3 20.9 0.00 0.36 0.36 48 1015.8
20260831171440 22 275 11.3 20.9 0.00 0.36 0.36 48 1015.7
20260831171336 22 263 11.3 20.9 0.00 0.36 0.36 48 1015.8
20260831171312 22 237 11.3 20.9 0.00 0.36 0.36 48 1015.8
20260831171236 22 246 11.3 20.9 0.00 0.36 0.36 47 1015.8
20260831171130 22 265 11.3 20.9 0.00 0.36 0.36 47 1015.8
20260831171030 22 311 11.3 20.9 0.00 0.36 0.36 47 1015.7
20260831170929 22 283 11.3 20.9 0.00 0.36 0.36 48 1015.7
20260831170830 22 263 9.7 20.9 0.00 0.36 0.36 47 1015.7
20260831170812 22 259 9.7 20.9 0.00 0.36 0.36 47 1015.7
20260831170730 22 260 9.7 22.5 0.00 0.36 0.36 47 1015.7
20260831170623 22 242 11.3 22.5 0.00 0.36 0.36 47 1015.7
20260831170524 22 275 11.3 22.5 0.00 0.36 0.36 47 1015.7
20260831170423 22 265 11.3 22.5 0.00 0.36 0.36 47 1015.7
20260831170324 22 252 12.9 22.5 0.00 0.36 0.36 47 1015.7
20260831170312 22 234 12.9 22.5 0.00 0.36 0.36 47 1015.7
20260831170223 22 271 12.9 22.5 0.00 0.36 0.36 46 1015.7
20260831170120 22 281 12.9 22.5 0.00 0.36 0.36 46 1015.7
20260831170020 22 269 12.9 22.5 0.00 0.36 0.36 46 1015.6
20260831165920 22 273 12.9 22.5 0.00 0.36 0.36 46 1015.7
20260831165820 22 263 12.9 22.5 0.00 0.36 0.36 46 1015.7
20260831165812 22 233 12.9 22.5 0.00 0.36 0.36 46 1015.7
20260831165717 22 267 12.9 20.9 0.00 0.36 0.36 46 1015.6
20260831165613 22 248 12.9 20.9 0.00 0.36 0.36 45 1015.7
20260831165539 22 254 12.9 24.1 0.00 0.36 0.36 46 1015.6
20260831165533 22 255 12.9 19.3 0.00 0.36 0.36 46 1015.7
20260831165526 22 315 12.9 24.1 0.00 0.36 0.36 46 1015.7
20260831165522 22 247 12.9 24.1 0.00 0.36 0.36 46 1015.6
20260831165212 22 269 12.9 24.1 0.00 0.36 0.36 46 1015.6
20260831165107 22 243 12.9 24.1 0.00 0.36 0.36 46 1015.7
20260831165007 22 262 12.9 24.1 0.00 0.36 0.36 46 1015.6
20260831164908 22 281 14.5 24.1 0.00 0.36 0.36 46 1015.6
20260831164807 22 236 14.5 24.1 0.00 0.36 0.36 45 1015.6
20260831164705 22 283 14.5 24.1 0.00 0.36 0.36 45 1015.5
20260831164604 22 268 14.5 24.1 0.00 0.36 0.36 44 1015.6
20260831164504 22 277 14.5 24.1 0.00 0.36 0.36 44 1015.7
20260831164403 23 257 14.5 24.1 0.00 0.36 0.36 44 1015.6
20260831164308 23 253 14.5 24.1 0.00 0.36 0.36 44 1015.6
20260831164302 22 259 14.5 24.1 0.00 0.36 0.36 44 1015.6
20260831164202 23 238 16.1 24.1 0.00 0.36 0.36 44 1015.6
20260831164102 23 265 16.1 29.0 0.00 0.36 0.36 43 1015.7
20260831164002 23 251 16.1 29.0 0.00 0.36 0.36 43 1015.6
20260831163902 23 256 16.1 29.0 0.00 0.36 0.36 43 1015.6
20260831163808 23 250 16.1 29.0 0.00 0.36 0.36 43 1015.6
20260831163800 23 248 16.1 29.0 0.00 0.36 0.36 43 1015.6
20260831163659 23 267 16.1 29.0 0.00 0.36 0.36 42 1015.6
20260831163559 23 278 17.7 29.0 0.00 0.36 0.36 43 1015.6
20260831163459 23 267 17.7 29.0 0.00 0.36 0.36 42 1015.6
20260831163359 23 260 17.7 29.0 0.00 0.36 0.36 42 1015.6
20260831163307 23 263 17.7 29.0 0.00 0.36 0.36 42 1015.6
20260831163258 23 279 17.7 29.0 0.00 0.36 0.36 42 1015.6
20260831163158 23 293 16.1 29.0 0.00 0.36 0.36 42 1015.7
20260831163058 23 285 16.1 27.4 0.00 0.36 0.36 42 1015.7
20260831162958 23 250 14.5 27.4 0.00 0.36 0.36 42 1015.6
20260831162858 23 219 14.5 27.4 0.00 0.36 0.36 43 1015.6
20260831162808 23 298 14.5 27.4 0.00 0.36 0.36 42 1015.5
20260831162758 23 248 14.5 27.4 0.00 0.36 0.36 42 1015.5
20260831162658 23 271 14.5 27.4 0.00 0.36 0.36 42 1015.6
20260831162557 23 247 12.9 27.4 0.00 0.36 0.36 43 1015.6
20260831162457 23 267 12.9 24.1 0.00 0.36 0.36 44 1015.5
20260831162353 23 243 12.9 25.7 0.00 0.36 0.36 44 1015.5
20260831162308 23 253 12.9 25.7 0.00 0.36 0.36 44 1015.5
20260831162251 23 250 12.9 25.7 0.00 0.36 0.36 44 1015.5
20260831162151 23 249 14.5 25.7 0.00 0.36 0.36 43 1015.5
20260831162052 23 270 14.5 25.7 0.00 0.36 0.36 44 1015.6
20260831161952 23 252 14.5 25.7 0.00 0.36 0.36 43 1015.6
20260831161851 23 257 14.5 25.7 0.00 0.36 0.36 43 1015.6
20260831161807 23 281 16.1 25.7 0.00 0.36 0.36 42 1015.6
20260831161750 23 230 16.1 25.7 0.00 0.36 0.36 42 1015.6
20260831161650 23 283 16.1 25.7 0.00 0.36 0.36 42 1015.6
20260831161550 23 284 16.1 25.7 0.00 0.36 0.36 42 1015.5
20260831161450 23 298 16.1 25.7 0.00 0.36 0.36 42 1015.6
20260831161350 23 269 17.7 32.2 0.00 0.36 0.36 42 1015.6
20260831161304 23 274 17.7 32.2 0.00 0.36 0.36 41 1015.6
20260831161249 23 263 17.7 32.2 0.00 0.36 0.36 41 1015.6
20260831161147 23 262 16.1 32.2 0.00 0.36 0.36 42 1015.6
20260831161049 23 273 17.7 32.2 0.00 0.36 0.36 42 1015.6
20260831160948 23 267 17.7 32.2 0.00 0.36 0.36 42 1015.6
20260831160848 23 239 17.7 32.2 0.00 0.36 0.36 41 1015.6
20260831160803 23 254 17.7 32.2 0.00 0.36 0.36 41 1015.6
20260831160748 23 262 17.7 32.2 0.00 0.36 0.36 41 1015.6
20260831160646 23 273 17.7 32.2 0.00 0.36 0.36 41 1015.6
20260831160546 23 262 17.7 32.2 0.00 0.36 0.36 41 1015.6
20260831160447 23 286 17.7 32.2 0.00 0.36 0.36 41 1015.6
20260831160346 23 288 17.7 29.0 0.00 0.36 0.36 41 1015.6
20260831160304 23 258 19.3 30.6 0.00 0.36 0.36 41 1015.5
20260831160245 23 252 19.3 30.6 0.00 0.36 0.36 41 1015.5
20260831160139 23 263 19.3 30.6 0.00 0.36 0.36 41 1015.5
20260831160040 23 277 19.3 30.6 0.00 0.36 0.36 41 1015.7
20260831155940 23 234 19.3 30.6 0.00 0.36 0.36 41 1015.6
20260831155839 23 258 19.3 30.6 0.00 0.36 0.36 41 1015.5
20260831155803 23 296 19.3 30.6 0.00 0.36 0.36 41 1015.5
20260831155740 23 229 19.3 30.6 0.00 0.36 0.36 41 1015.5
20260831155634 23 259 17.7 30.6 0.00 0.36 0.36 41 1015.5
20260831155533 23 271 17.7 30.6 0.00 0.36 0.36 40 1015.5
20260831155433 23 257 17.7 30.6 0.00 0.36 0.36 39 1015.6
20260831155334 23 280 16.1 27.4 0.00 0.36 0.36 40 1015.4
20260831155306 23 261 16.1 27.4 0.00 0.36 0.36 40 1015.6
20260831155233 23 268 16.1 27.4 0.00 0.36 0.36 41 1015.6
20260831155133 23 259 16.1 25.7 0.00 0.36 0.36 40 1015.5
20260831155033 23 248 16.1 25.7 0.00 0.36 0.36 41 1015.5
20260831154932 23 298 16.1 25.7 0.00 0.36 0.36 40 1015.4
20260831154831 23 265 14.5 25.7 0.00 0.36 0.36 41 1015.5
20260831154804 23 257 14.5 25.7 0.00 0.36 0.36 41 1015.4
20260831154732 23 282 14.5 25.7 0.00 0.36 0.36 41 1015.4
20260831154632 23 263 14.5 25.7 0.00 0.36 0.36 41 1015.3
20260831154532 23 270 14.5 24.1 0.00 0.36 0.36 41 1015.3
20260831154430 23 252 14.5 24.1 0.00 0.36 0.36 41 1015.4
20260831154330 23 253 14.5 24.1 0.00 0.36 0.36 40 1015.4
20260831154303 23 265 14.5 24.1 0.00 0.36 0.36 42 1015.4
20260831154230 23 268 14.5 24.1 0.00 0.36 0.36 42 1015.4
20260831154130 23 248 12.9 24.1 0.00 0.36 0.36 43 1015.4
20260831154029 23 276 12.9 24.1 0.00 0.36 0.36 43 1015.4
20260831153925 23 267 12.9 24.1 0.00 0.36 0.36 44 1015.4
20260831153825 23 299 12.9 24.1 0.00 0.36 0.36 45 1015.4
20260831153804 23 250 12.9 24.1 0.00 0.36 0.36 44 1015.4
20260831153725 23 257 12.9 24.1 0.00 0.36 0.36 44 1015.4
20260831153626 23 263 12.9 24.1 0.00 0.36 0.36 44 1015.4
20260831153535 23 282 12.9 22.5 0.00 0.36 0.36 44 1015.4
20260831153529 23 223 12.9 22.5 0.00 0.36 0.36 45 1015.4
20260831153525 23 243 12.9 22.5 0.00 0.36 0.36 43 1015.4
20260831153517 23 254 12.9 22.5 0.00 0.36 0.36 44 1015.4
20260831153223 23 229 12.9 22.5 0.00 0.36 0.36 44 1015.4
20260831153124 23 253 14.5 24.1 0.00 0.36 0.36 45 1015.4
20260831153024 23 230 14.5 24.1 0.00 0.36 0.36 44 1015.4
20260831152924 23 268 14.5 24.1 0.00 0.36 0.36 44 1015.4
20260831152823 23 210 14.5 24.1 0.00 0.36 0.36 45 1015.4
20260831152802 23 275 16.1 38.6 0.00 0.36 0.36 45 1015.4
20260831152724 23 237 16.1 38.6 0.00 0.36 0.36 44 1015.4
20260831152624 23 225 16.1 38.6 0.00 0.36 0.36 43 1015.5
20260831152524 23 254 16.1 38.6 0.00 0.36 0.36 42 1015.4
20260831152424 23 278 16.1 38.6 0.00 0.36 0.36 42 1015.4
20260831152324 23 246 16.1 38.6 0.00 0.36 0.36 41 1015.5
20260831152301 23 254 16.1 38.6 0.00 0.36 0.36 41 1015.5
20260831152220 23 267 17.7 38.6 0.00 0.36 0.36 41 1015.5
20260831152120 23 273 17.7 38.6 0.00 0.36 0.36 42 1015.5
20260831152019 23 281 17.7 38.6 0.00 0.36 0.36 42 1015.4
20260831151919 23 280 17.7 38.6 0.00 0.36 0.36 42 1015.6
20260831151820 23 245 16.1 38.6 0.00 0.36 0.36 43 1015.5
20260831151801 23 211 16.1 33.8 0.00 0.36 0.36 43 1015.5
20260831151719 23 266 17.7 33.8 0.00 0.36 0.36 42 1015.6
20260831151619 23 255 17.7 33.8 0.00 0.36 0.36 41 1015.5
20260831151519 23 259 17.7 33.8 0.00 0.36 0.36 43 1015.5
20260831151419 23 240 17.7 33.8 0.00 0.36 0.36 42 1015.5
20260831151320 23 257 17.7 33.8 0.00 0.36 0.36 43 1015.6
20260831151302 23 265 17.7 33.8 0.00 0.36 0.36 43 1015.6
20260831151218 23 254 16.1 29.0 0.00 0.36 0.36 43 1015.7
20260831151118 23 274 16.1 27.4 0.00 0.36 0.36 43 1015.7
20260831151011 23 299 16.1 25.7 0.00 0.36 0.36 44 1015.5
20260831150911 23 257 16.1 25.7 0.00 0.36 0.36 43 1015.6
20260831150811 23 257 16.1 29.0 0.00 0.36 0.36 43 1015.6
20260831150801 23 273 16.1 29.0 0.00 0.36 0.36 43 1015.6
20260831150712 23 269 16.1 29.0 0.00 0.36 0.36 43 1015.6
20260831150612 23 244 17.7 29.0 0.00 0.36 0.36 44 1015.5
20260831150512 23 244 17.7 29.0 0.00 0.36 0.36 44 1015.5
20260831150412 23 264 17.7 29.0 0.00 0.36 0.36 42 1015.5
20260831150312 23 259 17.7 29.0 0.00 0.36 0.36 43 1015.5
20260831150301 23 276 17.7 29.0 0.00 0.36 0.36 43 1015.5
20260831150212 23 252 16.1 29.0 0.00 0.36 0.36 42 1015.5
20260831150112 23 259 16.1 29.0 0.00 0.36 0.36 42 1015.5
20260831150029 23 252 16.1 29.0 0.00 0.36 0.36 41 1015.6
20260831150025 23 240 16.1 29.0 0.00 0.36 0.36 42 1015.6
20260831150021 23 263 16.1 29.0 0.00 0.36 0.36 42 1015.6
20260831150012 23 261 16.1 29.0 0.00 0.36 0.36 41 1015.6
20260831145708 23 202 16.1 29.0 0.00 0.36 0.36 41 1015.7
20260831145608 23 247 14.5 29.0 0.00 0.36 0.36 42 1015.8
20260831145507 24 248 14.5 29.0 0.00 0.36 0.36 42 1015.6
20260831145407 24 271 12.9 29.0 0.00 0.36 0.36 43 1015.7
20260831145307 24 277 12.9 29.0 0.00 0.36 0.36 45 1015.6
20260831145300 24 236 12.9 29.0 0.00 0.36 0.36 44 1015.6
20260831145207 24 272 12.9 29.0 0.00 0.36 0.36 44 1015.7
20260831145107 24 252 12.9 29.0 0.00 0.36 0.36 43 1015.7
20260831145008 24 274 14.5 29.0 0.00 0.36 0.36 44 1015.6
20260831144908 24 292 12.9 29.0 0.00 0.36 0.36 44 1015.7
20260831144808 24 261 12.9 24.1 0.00 0.36 0.36 46 1015.7
20260831144801 24 280 12.9 24.1 0.00 0.36 0.36 46 1015.7
20260831144708 24 242 12.9 24.1 0.00 0.36 0.36 45 1015.6
20260831144608 24 263 12.9 24.1 0.00 0.36 0.36 47 1015.6
20260831144530 24 273 14.5 24.1 0.00 0.36 0.36 46 1015.7
20260831144525 24 292 12.9 24.1 0.00 0.36 0.36 47 1015.6
20260831144521 24 279 14.5 24.1 0.00 0.36 0.36 47 1015.6
20260831144513 24 242 14.5 24.1 0.00 0.36 0.36 46 1015.7
20260831144207 24 288 14.5 24.1 0.00 0.36 0.36 46 1015.6
20260831144107 24 229 16.1 24.1 0.00 0.36 0.36 45 1015.6
20260831144008 24 248 16.1 24.1 0.00 0.36 0.36 46 1015.6
20260831143904 24 304 14.5 25.7 0.00 0.36 0.36 45 1015.6
20260831143805 24 288 14.5 25.7 0.00 0.36 0.36 46 1015.6
20260831143801 24 281 14.5 25.7 0.00 0.36 0.36 46 1015.6
20260831143704 24 294 16.1 25.7 0.00 0.36 0.36 46 1015.6
20260831143604 24 273 14.5 25.7 0.00 0.36 0.36 45 1015.7
20260831143503 24 227 16.1 25.7 0.00 0.36 0.36 44 1015.6
20260831143403 24 256 16.1 25.7 0.00 0.36 0.36 43 1015.6
20260831143306 24 231 16.1 25.7 0.00 0.36 0.36 44 1015.6
20260831143301 24 266 16.1 25.7 0.00 0.36 0.36 44 1015.6
20260831143203 25 261 16.1 25.7 0.00 0.36 0.36 44 1015.6
20260831143103 25 254 14.5 25.7 0.00 0.36 0.36 44 1015.7
20260831143003 25 254 14.5 25.7 0.00 0.36 0.36 44 1015.6
20260831142903 25 205 16.1 25.7 0.00 0.36 0.36 45 1015.7
20260831142805 25 280 14.5 25.7 0.00 0.36 0.36 45 1015.7
20260831142800 25 261 14.5 25.7 0.00 0.36 0.36 45 1015.7
20260831142703 25 215 14.5 25.7 0.00 0.36 0.36 45 1015.7
20260831142603 25 266 16.1 25.7 0.00 0.36 0.36 45 1015.7
20260831142503 24 261 14.5 25.7 0.00 0.36 0.36 46 1015.7
20260831142403 24 265 14.5 25.7 0.00 0.36 0.36 46 1015.7
20260831142306 24 336 14.5 24.1 0.00 0.36 0.36 45 1015.7
20260831142301 24 304 14.5 24.1 0.00 0.36 0.36 45 1015.7
20260831142203 24 284 14.5 24.1 0.00 0.36 0.36 46 1015.7
20260831142103 24 275 14.5 25.7 0.00 0.36 0.36 45 1015.7
20260831142003 24 275 14.5 25.7 0.00 0.36 0.36 45 1015.7
20260831141903 24 248 14.5 25.7 0.00 0.36 0.36 46 1015.7
20260831141805 24 218 14.5 25.7 0.00 0.36 0.36 46 1015.7
20260831141801 24 217 14.5 25.7 0.00 0.36 0.36 46 1015.7
20260831141704 24 281 14.5 25.7 0.00 0.36 0.36 46 1015.7
20260831141604 24 251 14.5 25.7 0.00 0.36 0.36 47 1015.7
20260831141502 24 260 14.5 25.7 0.00 0.36 0.36 47 1015.7
20260831141402 24 236 14.5 25.7 0.00 0.36 0.36 46 1015.7
20260831141303 24 296 14.5 25.7 0.00 0.36 0.36 46 1015.6
20260831141201 24 288 12.9 29.0 0.00 0.36 0.36 47 1015.7
20260831141101 24 296 14.5 29.0 0.00 0.36 0.36 48 1015.7
20260831141001 24 321 14.5 29.0 0.00 0.36 0.36 48 1015.7
20260831140901 24 291 14.5 29.0 0.00 0.36 0.36 47 1015.7
20260831140801 24 275 14.5 29.0 0.00 0.36 0.36 48 1015.7
20260831140701 24 334 14.5 29.0 0.00 0.36 0.36 46 1015.7
20260831140601 24 261 12.9 29.0 0.00 0.36 0.36 47 1015.7
20260831140501 24 290 14.5 29.0 0.00 0.36 0.36 46 1015.7
20260831140401 24 277 14.5 29.0 0.00 0.36 0.36 46 1015.7
20260831140301 24 289 14.5 29.0 0.00 0.36 0.36 47 1015.7
20260831140201 24 245 14.5 22.5 0.00 0.36 0.36 47 1015.7
20260831140101 24 266 14.5 24.1 0.00 0.36 0.36 48 1015.7
20260831140001 24 264 14.5 24.1 0.00 0.36 0.36 47 1015.7
20260831135900 24 267 14.5 24.1 0.00 0.36 0.36 47 1015.7
20260831135800 24 259 14.5 24.1 0.00 0.36 0.36 48 1015.7
20260831135700 24 250 16.1 32.2 0.00 0.36 0.36 49 1015.6
20260831135600 24 221 16.1 32.2 0.00 0.36 0.36 47 1015.6
20260831135501 24 271 16.1 32.2 0.00 0.36 0.36 46 1015.6
20260831135401 24 294 16.1 32.2 0.00 0.36 0.36 46 1015.7
20260831135301 24 295 16.1 32.2 0.00 0.36 0.36 47 1015.6
20260831135201 24 294 16.1 32.2 0.00 0.36 0.36 47 1015.6
20260831135101 24 250 17.7 32.2 0.00 0.36 0.36 46 1015.6
20260831135001 24 257 17.7 32.2 0.00 0.36 0.36 46 1015.7
20260831134901 24 253 17.7 32.2 0.00 0.36 0.36 46 1015.6
20260831134801 24 291 17.7 32.2 0.00 0.36 0.36 47 1015.7
20260831134701 24 281 17.7 29.0 0.00 0.36 0.36 47 1015.7
20260831134601 24 242 17.7 29.0 0.00 0.36 0.36 47 1015.6
20260831134501 24 264 17.7 29.0 0.00 0.36 0.36 46 1015.6
20260831134402 24 280 17.7 29.0 0.00 0.36 0.36 47 1015.7
20260831134305 24 304 17.7 29.0 0.00 0.36 0.36 47 1015.8
20260831134202 24 274 17.7 30.6 0.00 0.36 0.36 46 1015.8
20260831134102 24 276 17.7 35.4 0.00 0.36 0.36 47 1015.8
20260831134001 24 261 17.7 35.4 0.00 0.36 0.36 48 1015.7
20260831133901 24 250 17.7 35.4 0.00 0.36 0.36 47 1015.8
20260831133802 24 256 17.7 35.4 0.00 0.36 0.36 47 1015.8
20260831133701 24 290 16.1 35.4 0.00 0.36 0.36 48 1015.8
20260831133601 24 280 16.1 35.4 0.00 0.36 0.36 46 1015.8
20260831133501 24 223 16.1 35.4 0.00 0.36 0.36 46 1015.8
20260831133401 24 277 16.1 35.4 0.00 0.36 0.36 47 1015.8
20260831133301 24 233 16.1 35.4 0.00 0.36 0.36 46 1016.0
20260831133201 24 261 16.1 35.4 0.00 0.36 0.36 46 1016.2
20260831133101 24 269 14.5 27.4 0.00 0.36 0.36 47 1015.8
20260831133021 23 283 16.1 27.4 0.00 0.36 0.36 47 1015.8
20260831133017 23 243 16.1 32.2 0.00 0.36 0.36 46 1015.8
20260831133013 23 245 16.1 32.2 0.00 0.36 0.36 48 1015.8
20260831132701 23 267 17.7 32.2 0.00 0.36 0.36 48 1015.8
20260831132602 23 265 17.7 32.2 0.00 0.36 0.36 47 1015.8
20260831132501 23 262 17.7 32.2 0.00 0.36 0.36 48 1016.0
20260831132401 23 239 19.3 32.2 0.00 0.36 0.36 47 1016.0
20260831132301 23 250 19.3 32.2 0.00 0.36 0.36 47 1016.0
20260831132201 23 208 19.3 32.2 0.00 0.36 0.36 46 1015.8
20260831132101 23 281 19.3 32.2 0.00 0.36 0.36 46 1016.0
20260831132000 23 246 19.3 32.2 0.00 0.36 0.36 46 1016.0
20260831131900 23 284 19.3 30.6 0.00 0.36 0.36 45 1016.0
20260831131800 23 292 17.7 30.6 0.00 0.36 0.36 46 1016.1
20260831131700 23 243 17.7 29.0 0.00 0.36 0.36 46 1016.0
20260831131600 23 269 17.7 29.0 0.00 0.36 0.36 46 1015.8
20260831131501 23 236 17.7 29.0 0.00 0.36 0.36 45 1016.0
20260831131401 23 271 17.7 29.0 0.00 0.36 0.36 45 1016.0
20260831131301 23 268 16.1 29.0 0.00 0.36 0.36 47 1016.0
20260831131201 23 260 16.1 29.0 0.00 0.36 0.36 46 1016.0
20260831131101 23 221 16.1 25.7 0.00 0.36 0.36 47 1015.8
20260831131019 23 231 16.1 32.2 0.00 0.36 0.36 47 1016.0
20260831131015 23 236 17.7 32.2 0.00 0.36 0.36 46 1016.0
20260831131011 23 242 17.7 32.2 0.00 0.36 0.36 46 1016.0
20260831130702 23 254 17.7 32.2 0.00 0.36 0.36 45 1016.0
20260831130601 23 286 17.7 32.2 0.00 0.36 0.36 46 1016.1
20260831130501 23 283 17.7 32.2 0.00 0.36 0.36 46 1016.0
20260831130401 23 265 17.7 32.2 0.00 0.36 0.36 45 1015.8
20260831130301 23 253 17.7 32.2 0.00 0.36 0.36 45 1016.0
20260831130231 23 267 17.7 32.2 0.00 0.36 0.36 46 1016.0
20260831130101 23 254 16.1 32.2 0.00 0.36 0.36 46 1016.1
20260831130021 23 270 16.1 32.2 0.00 0.36 0.36 46 1016.0
20260831130017 23 267 16.1 32.2 0.00 0.36 0.36 45 1016.1
20260831130013 23 257 14.5 32.2 0.00 0.36 0.36 46 1015.8
20260831125701 23 255 14.5 32.2 0.00 0.36 0.36 48 1016.0
20260831125601 23 261 14.5 32.2 0.00 0.36 0.36 46 1016.0
20260831125501 23 257 12.9 32.2 0.00 0.36 0.36 48 1016.0
20260831125400 23 267 14.5 24.1 0.00 0.36 0.36 49 1016.0
20260831125301 23 269 12.9 24.1 0.00 0.36 0.36 48 1016.0
20260831125200 23 316 14.5 24.1 0.00 0.36 0.36 48 1015.8
20260831125102 23 279 14.5 32.2 0.00 0.36 0.36 49 1016.0
20260831125001 23 265 14.5 32.2 0.00 0.36 0.36 48 1016.0
20260831124901 23 276 14.5 32.2 0.00 0.36 0.36 49 1016.0
20260831124800 23 219 14.5 32.2 0.00 0.36 0.36 49 1016.1
20260831124701 23 291 16.1 32.2 0.00 0.36 0.36 49 1016.0
20260831124601 23 239 16.1 32.2 0.00 0.36 0.36 48 1016.0
20260831124501 23 213 16.1 32.2 0.00 0.36 0.36 49 1016.0
20260831124401 23 254 16.1 32.2 0.00 0.36 0.36 49 1016.0
20260831124301 23 236 16.1 32.2 0.00 0.36 0.36 49 1016.0
20260831124202 23 271 16.1 32.2 0.00 0.36 0.36 50 1016.1
20260831124103 23 300 16.1 27.4 0.00 0.36 0.36 51 1016.0
20260831124001 23 240 16.1 27.4 0.00 0.36 0.36 51 1016.1
20260831123901 23 266 16.1 27.4 0.00 0.36 0.36 50 1016.0
20260831123801 23 260 16.1 27.4 0.00 0.36 0.36 48 1016.0
20260831123701 23 271 14.5 27.4 0.00 0.36 0.36 50 1016.1
20260831123601 23 214 14.5 27.4 0.00 0.36 0.36 51 1016.0
20260831123501 23 221 14.5 27.4 0.00 0.36 0.36 52 1016.0
20260831123401 23 241 14.5 35.4 0.00 0.36 0.36 50 1016.0
20260831123301 23 279 14.5 35.4 0.00 0.36 0.36 50 1016.0
20260831123201 23 231 14.5 35.4 0.00 0.36 0.36 51 1016.0
20260831123101 23 278 12.9 35.4 0.00 0.36 0.36 51 1016.1
20260831123001 23 218 14.5 35.4 0.00 0.36 0.36 53 1016.1
20260831122900 23 244 14.5 35.4 0.00 0.36 0.36 54 1016.0
20260831122802 23 293 14.5 35.4 0.00 0.36 0.36 52 1016.0
20260831122701 23 306 16.1 35.4 0.00 0.36 0.36 52 1016.1
20260831122601 23 232 16.1 35.4 0.00 0.36 0.36 52 1016.0
20260831122501 23 295 16.1 35.4 0.00 0.36 0.36 53 1016.0
20260831122401 23 213 17.7 35.4 0.00 0.36 0.36 53 1016.0
20260831122301 23 227 17.7 35.4 0.00 0.36 0.36 53 1016.0
20260831122201 23 252 17.7 35.4 0.00 0.36 0.36 52 1016.1
20260831122100 23 233 17.7 35.4 0.00 0.36 0.36 51 1016.1
20260831122000 23 212 17.7 35.4 0.00 0.36 0.36 52 1016.2
20260831121900 23 252 17.7 35.4 0.00 0.36 0.36 51 1016.1
20260831121800 23 246 17.7 35.4 0.00 0.36 0.36 51 1016.1
20260831121700 23 233 17.7 35.4 0.00 0.36 0.36 50 1016.1
20260831121600 23 242 17.7 35.4 0.00 0.36 0.36 50 1016.3
20260831121501 23 210 17.7 35.4 0.00 0.36 0.36 50 1016.2
20260831121401 23 248 17.7 33.8 0.00 0.36 0.36 49 1016.2
20260831121302 23 271 17.7 33.8 0.00 0.36 0.36 50 1016.2
20260831121201 23 263 17.7 33.8 0.00 0.36 0.36 51 1016.0
20260831121101 23 292 17.7 33.8 0.00 0.36 0.36 50 1016.1
20260831121002 23 269 17.7 33.8 0.00 0.36 0.36 51 1016.1
20260831120901 23 252 17.7 35.4 0.00 0.36 0.36 52 1016.1
20260831120801 23 242 19.3 35.4 0.00 0.36 0.36 52 1016.0
20260831120701 23 178 19.3 35.4 0.00 0.36 0.36 52 1016.0
20260831120601 23 279 19.3 35.4 0.00 0.36 0.36 52 1016.2
20260831120501 23 263 19.3 35.4 0.00 0.36 0.36 53 1016.1
20260831120401 22 268 19.3 35.4 0.00 0.36 0.36 52 1016.1
20260831120301 22 265 17.7 35.4 0.00 0.36 0.36 53 1016.1
20260831120201 22 240 17.7 35.4 0.00 0.36 0.36 51 1016.1
20260831120100 22 242 17.7 35.4 0.00 0.36 0.36 50 1016.1
20260831120000 22 261 16.1 35.4 0.00 0.36 0.36 52 1016.2
20260831115900 22 279 16.1 29.0 0.00 0.36 0.36 51 1016.2
20260831115801 22 209 16.1 29.0 0.00 0.36 0.36 55 1016.3
20260831115700 22 279 16.1 29.0 0.00 0.36 0.36 55 1016.2
20260831115601 22 208 16.1 29.0 0.00 0.36 0.36 54 1016.2
20260831115501 22 254 16.1 29.0 0.00 0.36 0.36 54 1016.2
20260831115401 22 225 16.1 29.0 0.00 0.36 0.36 54 1016.2
20260831115301 22 229 16.1 29.0 0.00 0.36 0.36 56 1016.2
20260831115201 22 238 16.1 29.0 0.00 0.36 0.36 55 1016.2
20260831115101 22 277 16.1 29.0 0.00 0.36 0.36 54 1016.2
20260831115001 22 226 16.1 29.0 0.00 0.36 0.36 55 1016.2
20260831114901 22 228 16.1 29.0 0.00 0.36 0.36 53 1016.3
20260831114800 22 277 16.1 29.0 0.00 0.36 0.36 53 1016.3
20260831114700 22 269 14.5 29.0 0.00 0.36 0.36 55 1016.4
20260831114600 22 287 14.5 27.4 0.00 0.36 0.36 54 1016.3
20260831114522 22 277 14.5 27.4 0.00 0.36 0.36 56 1016.3
20260831114518 22 268 14.5 24.1 0.00 0.36 0.36 56 1016.3
20260831114514 22 283 14.5 24.1 0.00 0.36 0.36 58 1016.3
20260831114202 22 255 14.5 24.1 0.00 0.36 0.36 57 1016.3
20260831114101 22 292 14.5 30.6 0.00 0.36 0.36 57 1016.3
20260831114001 22 290 16.1 30.6 0.00 0.36 0.36 59 1016.3
20260831113901 22 296 16.1 30.6 0.00 0.36 0.36 58 1016.3
20260831113801 22 288 16.1 30.6 0.00 0.36 0.36 57 1016.3
20260831113701 22 257 17.7 30.6 0.00 0.36 0.36 58 1016.4
20260831113601 22 235 17.7 37.0 0.00 0.36 0.36 57 1016.4
20260831113501 22 235 19.3 37.0 0.00 0.36 0.36 57 1016.4
20260831113401 22 242 19.3 37.0 0.00 0.36 0.36 58 1016.4
20260831113301 22 252 19.3 37.0 0.00 0.36 0.36 57 1016.4
20260831113205 22 238 20.9 37.0 0.00 0.36 0.36 59 1016.5
20260831113101 22 231 20.9 37.0 0.00 0.36 0.36 58 1016.4
20260831113001 22 275 20.9 37.0 0.00 0.36 0.36 57 1016.4
20260831112901 22 250 20.9 37.0 0.00 0.36 0.36 57 1016.4
20260831112800 22 269 19.3 37.0 0.00 0.36 0.36 55 1016.4
20260831112703 22 278 19.3 37.0 0.00 0.36 0.36 55 1016.4
20260831112601 22 285 17.7 35.4 0.00 0.36 0.36 57 1016.4
20260831112500 22 265 17.7 35.4 0.00 0.36 0.36 56 1016.4
20260831112400 22 225 17.7 35.4 0.00 0.36 0.36 56 1016.4
20260831112300 22 252 16.1 35.4 0.00 0.36 0.36 57 1016.5
20260831112201 22 246 16.1 35.4 0.00 0.36 0.36 60 1016.4
20260831112100 22 207 14.5 32.2 0.00 0.36 0.36 59 1016.4
20260831112000 22 253 14.5 32.2 0.00 0.36 0.36 60 1016.3
20260831111900 22 248 16.1 32.2 0.00 0.36 0.36 60 1016.4
20260831111801 22 236 16.1 32.2 0.00 0.36 0.36 60 1016.3
20260831111701 22 244 14.5 32.2 0.00 0.36 0.36 59 1016.3
20260831111600 22 262 14.5 32.2 0.00 0.36 0.36 60 1016.4
20260831111501 22 257 14.5 32.2 0.00 0.36 0.36 59 1016.4
20260831111401 22 222 14.5 29.0 0.00 0.36 0.36 62 1016.4
20260831111302 22 292 14.5 29.0 0.00 0.36 0.36 62 1016.4
20260831111201 22 229 14.5 29.0 0.00 0.36 0.36 62 1016.3
20260831111101 22 200 14.5 29.0 0.00 0.36 0.36 62 1016.4
20260831111001 22 219 14.5 29.0 0.00 0.36 0.36 63 1016.4
20260831110901 22 279 12.9 29.0 0.00 0.36 0.36 65 1016.4
20260831110801 22 238 12.9 24.1 0.00 0.36 0.36 64 1016.4
20260831110701 22 278 12.9 24.1 0.00 0.36 0.36 63 1016.3
20260831110601 22 248 12.9 24.1 0.00 0.36 0.36 65 1016.4
20260831110501 22 255 12.9 24.1 0.00 0.36 0.36 65 1016.4
20260831110401 22 260 12.9 27.4 0.00 0.36 0.36 64 1016.3
20260831110301 22 252 12.9 27.4 0.00 0.36 0.36 63 1016.3
20260831110253 22 205 12.9 27.4 0.00 0.36 0.36 65 1016.3
20260831110245 22 213 12.9 27.4 0.00 0.36 0.36 64 1016.4
20260831110238 22 247 12.9 27.4 0.00 0.36 0.36 64 1016.3
20260831110020 22 232 12.9 27.4 0.00 0.36 0.36 65 1016.4
20260831110016 22 215 12.9 27.4 0.00 0.36 0.36 64 1016.3
20260831110012 22 205 12.9 27.4 0.00 0.36 0.36 65 1016.3
20260831105701 22 309 14.5 27.4 0.00 0.36 0.36 65 1016.3
20260831105600 22 242 14.5 27.4 0.00 0.36 0.36 65 1016.4
20260831105519 22 263 14.5 27.4 0.00 0.36 0.36 65 1016.3
20260831105515 22 234 14.5 24.1 0.00 0.36 0.36 65 1016.3
20260831105511 22 200 14.5 24.1 0.00 0.36 0.36 65 1016.3
20260831105251 21 187 14.5 27.4 0.00 0.36 0.36 65 1016.3
20260831105246 21 236 14.5 24.1 0.00 0.36 0.36 65 1016.4
20260831105238 21 269 14.5 24.1 0.00 0.36 0.36 65 1016.4
20260831105020 21 229 14.5 27.4 0.00 0.36 0.36 65 1016.3
20260831105016 21 238 14.5 27.4 0.00 0.36 0.36 65 1016.4
20260831105012 21 187 14.5 27.4 0.00 0.36 0.36 65 1016.3
20260831104749 21 227 14.5 27.4 0.00 0.36 0.36 65 1016.3
20260831104744 21 232 14.5 27.4 0.00 0.36 0.36 64 1016.3
20260831104736 21 226 12.9 27.4 0.00 0.36 0.36 64 1016.3
20260831104519 21 194 12.9 27.4 0.00 0.36 0.36 64 1016.3
20260831104515 21 236 14.5 27.4 0.00 0.36 0.36 65 1016.3
20260831104511 21 227 14.5 27.4 0.00 0.36 0.36 65 1016.3
20260831104201 21 273 14.5 27.4 0.00 0.36 0.36 65 1016.4
20260831104101 21 273 14.5 27.4 0.00 0.36 0.36 65 1016.3
20260831104001 21 251 14.5 25.7 0.00 0.36 0.36 66 1016.4
20260831103901 21 283 14.5 27.4 0.00 0.36 0.36 65 1016.4
20260831103801 21 257 16.1 27.4 0.00 0.36 0.36 66 1016.3
20260831103701 21 247 16.1 27.4 0.00 0.36 0.36 65 1016.4
20260831103601 21 256 16.1 27.4 0.00 0.36 0.36 64 1016.4
20260831103521 21 229 17.7 27.4 0.00 0.36 0.36 65 1016.5
20260831103517 21 230 16.1 29.0 0.00 0.36 0.36 66 1016.5
20260831103513 21 246 16.1 29.0 0.00 0.36 0.36 65 1016.4
20260831103201 21 266 17.7 30.6 0.00 0.36 0.36 65 1016.5
20260831103101 21 256 17.7 30.6 0.00 0.36 0.36 64 1016.5
20260831103020 21 261 16.1 30.6 0.00 0.36 0.36 65 1016.6
20260831103016 21 207 16.1 30.6 0.00 0.36 0.36 64 1016.6
20260831103012 21 250 16.1 30.6 0.00 0.36 0.36 64 1016.5
20260831102700 21 212 16.1 30.6 0.00 0.36 0.36 65 1016.5
20260831102601 21 235 16.1 30.6 0.00 0.36 0.36 65 1016.5
20260831102500 21 225 16.1 30.6 0.00 0.36 0.36 65 1016.5
20260831102400 21 202 16.1 32.2 0.00 0.36 0.36 65 1016.5
20260831102301 21 212 16.1 32.2 0.00 0.36 0.36 66 1016.4
20260831102201 21 230 14.5 32.2 0.00 0.36 0.36 66 1016.5
20260831102101 21 270 14.5 32.2 0.00 0.36 0.36 66 1016.5
20260831102000 21 269 14.5 32.2 0.00 0.36 0.36 65 1016.4
20260831101900 21 276 16.1 32.2 0.00 0.36 0.36 67 1016.5
20260831101801 21 264 16.1 32.2 0.00 0.36 0.36 67 1016.4
20260831101701 21 288 16.1 32.2 0.00 0.36 0.36 66 1016.5
20260831101601 21 275 16.1 32.2 0.00 0.36 0.36 67 1016.5
20260831101500 21 219 17.7 32.2 0.00 0.36 0.36 66 1016.5
20260831101400 21 242 17.7 32.2 0.00 0.36 0.36 66 1016.6
20260831101301 21 276 17.7 33.8 0.00 0.36 0.36 66 1016.5
20260831101201 21 250 17.7 33.8 0.00 0.36 0.36 67 1016.6
20260831101101 21 252 19.3 33.8 0.00 0.36 0.36 67 1016.6
20260831101001 21 261 19.3 33.8 0.00 0.36 0.36 67 1016.6
20260831100901 21 271 19.3 33.8 0.00 0.36 0.36 66 1016.6
20260831100801 20 208 20.9 33.8 0.00 0.36 0.36 66 1016.6
20260831100701 20 228 20.9 33.8 0.00 0.36 0.36 66 1016.6
20260831100605 21 246 20.9 33.8 0.00 0.36 0.36 65 1016.7
20260831100501 21 265 19.3 33.8 0.00 0.36 0.36 66 1016.8
20260831100401 21 267 19.3 33.8 0.00 0.36 0.36 67 1016.5
20260831100302 21 278 20.9 32.2 0.00 0.36 0.36 66 1016.6
20260831100201 21 292 20.9 32.2 0.00 0.36 0.36 66 1016.6
20260831100103 21 274 20.9 32.2 0.00 0.36 0.36 65 1016.8
20260831100000 21 279 19.3 32.2 0.00 0.36 0.36 66 1016.6
20260831095901 21 275 19.3 32.2 0.00 0.36 0.36 66 1016.6
20260831095801 21 259 19.3 32.2 0.00 0.36 0.36 66 1017.0
20260831095701 21 256 19.3 32.2 0.00 0.36 0.36 66 1016.6
20260831095601 21 268 17.7 32.2 0.00 0.36 0.36 66 1016.6
20260831095501 21 284 17.7 32.2 0.00 0.36 0.36 66 1016.8
20260831095401 21 286 16.1 32.2 0.00 0.36 0.36 66 1016.8
20260831095300 21 265 16.1 32.2 0.00 0.36 0.36 66 1016.8
20260831095200 21 259 14.5 32.2 0.00 0.36 0.36 67 1016.7
20260831095100 21 248 12.9 27.4 0.00 0.36 0.36 67 1016.6
20260831095000 21 238 12.9 25.7 0.00 0.36 0.36 67 1016.6
20260831094900 21 271 12.9 25.7 0.00 0.36 0.36 67 1016.6
20260831094801 21 271 12.9 25.7 0.00 0.36 0.36 67 1016.7
20260831094701 21 297 12.9 25.7 0.00 0.36 0.36 68 1016.6
20260831094601 21 282 11.3 24.1 0.00 0.36 0.36 69 1016.6
20260831094501 21 298 12.9 22.5 0.00 0.36 0.36 69 1016.5
20260831094401 21 265 12.9 22.5 0.00 0.36 0.36 69 1016.5
20260831094301 21 246 12.9 22.5 0.00 0.36 0.36 70 1016.5
20260831094201 21 221 14.5 24.1 0.00 0.36 0.36 69 1016.5
20260831094102 21 286 14.5 24.1 0.00 0.36 0.36 69 1016.6
20260831094001 21 277 14.5 24.1 0.00 0.36 0.36 70 1016.5
20260831093901 21 281 14.5 24.1 0.00 0.36 0.36 70 1016.5
20260831093800 21 319 16.1 25.7 0.00 0.36 0.36 69 1016.5
20260831093700 21 272 16.1 25.7 0.00 0.36 0.36 70 1016.5
20260831093601 20 254 16.1 25.7 0.00 0.36 0.36 69 1016.5
20260831093521 20 264 16.1 25.7 0.00 0.36 0.36 69 1016.6
20260831093517 20 271 16.1 25.7 0.00 0.36 0.36 69 1016.6
20260831093513 20 262 16.1 25.7 0.00 0.36 0.36 70 1016.6
20260831093201 20 271 17.7 25.7 0.00 0.36 0.36 70 1016.7
20260831093101 20 238 17.7 25.7 0.00 0.36 0.36 71 1016.5
20260831093001 20 286 17.7 27.4 0.00 0.36 0.36 70 1016.7
20260831092901 20 264 17.7 27.4 0.00 0.36 0.36 71 1016.7
20260831092801 20 298 17.7 27.4 0.00 0.36 0.36 70 1016.6
20260831092701 20 263 17.7 27.4 0.00 0.36 0.36 71 1016.7
20260831092601 20 273 17.7 27.4 0.00 0.36 0.36 72 1016.6
20260831092501 20 259 16.1 27.4 0.00 0.36 0.36 72 1016.5
20260831092400 20 244 16.1 27.4 0.00 0.36 0.36 72 1016.6
20260831092300 20 246 16.1 27.4 0.00 0.36 0.36 72 1016.6
20260831092200 20 304 14.5 27.4 0.00 0.36 0.36 71 1016.7
20260831092100 20 236 14.5 27.4 0.00 0.36 0.36 72 1016.5
20260831092020 20 256 14.5 27.4 0.00 0.36 0.36 72 1016.6
20260831092016 20 277 12.9 27.4 0.00 0.36 0.36 72 1016.6
20260831092012 20 266 12.9 27.4 0.00 0.36 0.36 72 1016.6
20260831091701 20 248 12.9 27.4 0.00 0.36 0.36 73 1016.7
20260831091602 20 273 11.3 27.4 0.00 0.36 0.36 73 1016.5
20260831091502 20 238 11.3 27.4 0.00 0.36 0.36 73 1016.5
20260831091401 20 268 11.3 27.4 0.00 0.36 0.36 72 1016.5
20260831091302 20 277 11.3 27.4 0.00 0.36 0.36 74 1016.6
20260831091201 20 217 11.3 27.4 0.00 0.36 0.36 75 1016.6
20260831091100 20 239 11.3 25.7 0.00 0.36 0.36 76 1016.5
20260831091001 19 267 11.3 20.9 0.00 0.36 0.36 76 1016.6
20260831090901 19 302 11.3 20.9 0.00 0.36 0.36 75 1016.6
20260831090800 19 265 11.3 20.9 0.00 0.36 0.36 76 1016.5
20260831090700 19 293 11.3 20.9 0.00 0.36 0.36 75 1016.5
20260831090601 19 254 11.3 20.9 0.00 0.36 0.36 75 1016.6
20260831090501 19 275 11.3 20.9 0.00 0.36 0.36 75 1016.5
20260831090401 19 228 11.3 20.9 0.00 0.36 0.36 75 1016.6
20260831090301 19 250 11.3 20.9 0.00 0.36 0.36 75 1016.7
20260831090201 19 254 11.3 20.9 0.00 0.36 0.36 75 1016.6
20260831090101 19 265 11.3 17.7 0.00 0.36 0.36 75 1016.6
20260831090001 19 273 11.3 19.3 0.00 0.36 0.36 76 1016.6
20260831085901 19 245 11.3 19.3 0.00 0.36 0.36 76 1016.6
20260831085800 19 280 11.3 19.3 0.00 0.36 0.36 76 1016.6
20260831085700 19 256 12.9 20.9 0.00 0.36 0.36 76 1016.5
20260831085600 19 265 12.9 20.9 0.00 0.36 0.36 75 1016.6
20260831085500 19 256 12.9 22.5 0.00 0.36 0.36 76 1016.6
20260831085401 19 274 12.9 22.5 0.00 0.36 0.36 76 1016.5
20260831085301 19 277 12.9 22.5 0.00 0.36 0.36 75 1016.5
20260831085248 19 288 12.9 22.5 0.00 0.36 0.36 76 1016.5
20260831085245 19 257 14.5 22.5 0.00 0.36 0.36 75 1016.4
20260831085240 19 232 14.5 22.5 0.00 0.36 0.36 75 1016.5
20260831085020 19 240 12.9 22.5 0.00 0.36 0.36 76 1016.4
20260831085015 19 266 12.9 22.5 0.00 0.36 0.36 76 1016.6
20260831085011 19 288 12.9 22.5 0.00 0.36 0.36 76 1016.5
20260831084701 19 251 12.9 22.5 0.00 0.36 0.36 76 1016.5
20260831084601 19 269 11.3 22.5 0.00 0.36 0.36 77 1016.4
20260831084501 19 258 11.3 19.3 0.00 0.36 0.36 77 1016.5
20260831084401 19 267 11.3 19.3 0.00 0.36 0.36 77 1016.5
20260831084300 19 290 11.3 19.3 0.00 0.36 0.36 76 1016.5
20260831084202 19 233 9.7 19.3 0.00 0.36 0.36 77 1016.5
20260831084100 19 263 9.7 17.7 0.00 0.36 0.36 78 1016.4
20260831084001 19 256 9.7 17.7 0.00 0.36 0.36 78 1016.4
20260831083901 19 281 9.7 17.7 0.00 0.36 0.36 78 1016.4
20260831083801 19 263 11.3 17.7 0.00 0.36 0.36 78 1016.5
20260831083700 19 242 11.3 19.3 0.00 0.36 0.36 78 1016.4
20260831083600 19 258 11.3 19.3 0.00 0.36 0.36 78 1016.4
20260831083501 19 282 11.3 19.3 0.00 0.36 0.36 77 1016.4
20260831083400 19 236 11.3 19.3 0.00 0.36 0.36 78 1016.4
20260831083300 19 254 11.3 19.3 0.00 0.36 0.36 78 1016.4
20260831083201 19 251 11.3 19.3 0.00 0.36 0.36 78 1016.4
20260831083101 18 265 11.3 19.3 0.00 0.36 0.36 78 1016.3
20260831083000 19 281 11.3 19.3 0.00 0.36 0.36 78 1016.4
20260831082900 19 253 11.3 19.3 0.00 0.36 0.36 78 1016.4
20260831082801 19 248 11.3 19.3 0.00 0.36 0.36 78 1016.3
20260831082701 19 260 11.3 19.3 0.00 0.36 0.36 78 1016.4
20260831082601 18 263 11.3 19.3 0.00 0.36 0.36 80 1016.3
20260831082500 18 257 11.3 19.3 0.00 0.36 0.36 80 1016.2
20260831082401 18 253 11.3 19.3 0.00 0.36 0.36 79 1016.2
20260831082301 18 298 11.3 19.3 0.00 0.36 0.36 79 1016.2
20260831082200 18 246 11.3 19.3 0.00 0.36 0.36 79 1016.2
20260831082100 18 254 11.3 19.3 0.00 0.36 0.36 78 1016.2
20260831082001 18 271 11.3 19.3 0.00 0.36 0.36 80 1016.4
20260831081900 18 277 11.3 19.3 0.00 0.36 0.36 81 1016.3
20260831081801 18 292 11.3 19.3 0.00 0.36 0.36 81 1016.2
20260831081701 18 293 11.3 19.3 0.00 0.36 0.36 81 1016.2
20260831081601 18 259 12.9 19.3 0.00 0.36 0.36 81 1016.2
20260831081501 18 221 12.9 22.5 0.00 0.36 0.36 81 1016.2
20260831081401 18 271 12.9 22.5 0.00 0.36 0.36 82 1016.2
20260831081301 18 255 11.3 22.5 0.00 0.36 0.36 82 1016.4
20260831081200 18 254 11.3 22.5 0.00 0.36 0.36 82 1016.2
20260831081100 18 260 9.7 22.5 0.00 0.36 0.36 81 1016.3
20260831081000 18 221 9.7 22.5 0.00 0.36 0.36 82 1016.3
20260831080900 18 232 9.7 22.5 0.00 0.36 0.36 82 1016.3
20260831080800 18 242 9.7 22.5 0.00 0.36 0.36 83 1016.2
20260831080700 18 249 9.7 22.5 0.00 0.36 0.36 83 1016.2
20260831080601 18 212 8.0 22.5 0.00 0.36 0.36 84 1016.1
20260831080501 18 264 8.0 17.7 0.00 0.36 0.36 84 1016.1
20260831080401 18 237 8.0 17.7 0.00 0.36 0.36 84 1016.2
20260831080302 18 248 9.7 17.7 0.00 0.36 0.36 84 1016.1
20260831080200 18 262 9.7 17.7 0.00 0.36 0.36 83 1016.1
20260831080021 18 219 9.7 17.7 0.00 0.36 0.36 83 1016.2
20260831080017 18 252 9.7 17.7 0.00 0.36 0.36 83 1016.2
20260831080013 18 232 9.7 17.7 0.00 0.36 0.36 83 1016.2
20260831075701 18 264 9.7 17.7 0.00 0.36 0.36 83 1016.2
20260831075601 18 231 9.7 17.7 0.00 0.36 0.36 83 1016.1
20260831075501 18 270 9.7 17.7 0.00 0.36 0.36 83 1016.1
20260831075400 18 233 9.7 16.1 0.00 0.36 0.36 83 1016.1
20260831075300 18 268 8.0 16.1 0.00 0.36 0.36 84 1016.1
20260831075200 18 236 8.0 16.1 0.00 0.36 0.36 84 1016.1
20260831075100 18 231 9.7 16.1 0.00 0.36 0.36 84 1016.1
20260831075000 18 238 9.7 17.7 0.00 0.36 0.36 84 1016.1
20260831074900 18 261 8.0 17.7 0.00 0.36 0.36 84 1016.1
20260831074801 18 238 8.0 17.7 0.00 0.36 0.36 84 1016.1
20260831074701 18 300 9.7 17.7 0.00 0.36 0.36 83 1016.1
20260831074601 18 275 9.7 17.7 0.00 0.36 0.36 83 1016.1
20260831074501 18 285 9.7 17.7 0.00 0.36 0.36 83 1016.1
20260831074401 18 317 9.7 17.7 0.00 0.36 0.36 83 1016.1
20260831074301 18 269 11.3 20.9 0.00 0.36 0.36 83 1016.0
20260831074202 18 252 11.3 20.9 0.00 0.36 0.36 84 1016.0
20260831074101 18 265 11.3 20.9 0.00 0.36 0.36 83 1016.1
20260831074023 18 252 11.3 22.5 0.00 0.36 0.36 84 1016.0
20260831074015 18 283 11.3 22.5 0.00 0.36 0.36 84 1016.0
20260831074011 18 263 11.3 22.5 0.00 0.36 0.36 85 1016.0
20260831073700 18 231 11.3 22.5 0.00 0.36 0.36 85 1016.1
20260831073600 18 244 11.3 22.5 0.00 0.36 0.36 84 1016.1
20260831073502 18 264 12.9 22.5 0.00 0.36 0.36 84 1016.0
20260831073400 18 241 12.9 22.5 0.00 0.36 0.36 84 1016.1
20260831073301 18 265 12.9 22.5 0.00 0.36 0.36 84 1016.1
20260831073201 18 281 12.9 32.2 0.00 0.36 0.36 84 1016.0
20260831073101 18 283 12.9 32.2 0.00 0.36 0.36 85 1016.1
20260831073001 18 267 12.9 32.2 0.00 0.36 0.36 85 1015.8
20260831072901 18 229 12.9 32.2 0.00 0.36 0.36 85 1015.8
20260831072801 18 249 12.9 32.2 0.00 0.36 0.36 85 1015.8
20260831072700 18 290 12.9 32.2 0.00 0.36 0.36 84 1016.0
20260831072600 18 255 12.9 32.2 0.00 0.36 0.36 85 1016.0
20260831072500 18 260 12.9 32.2 0.00 0.36 0.36 85 1016.0
20260831072401 18 263 12.9 32.2 0.00 0.36 0.36 85 1016.0
20260831072301 18 279 11.3 32.2 0.00 0.36 0.36 85 1016.0
20260831072201 18 236 11.3 20.9 0.00 0.36 0.36 87 1015.8
20260831072100 18 241 11.3 20.9 0.00 0.36 0.36 87 1015.8
20260831072000 17 254 11.3 20.9 0.00 0.36 0.36 87 1015.8
20260831071901 17 252 11.3 20.9 0.00 0.36 0.36 87 1015.8
20260831071800 17 281 11.3 22.5 0.00 0.36 0.36 87 1015.8
20260831071701 17 269 12.9 22.5 0.00 0.36 0.36 86 1016.0
20260831071601 17 238 12.9 22.5 0.00 0.36 0.36 87 1016.0
20260831071500 17 257 11.3 22.5 0.00 0.36 0.36 87 1015.8
20260831071401 17 255 11.3 22.5 0.00 0.36 0.36 87 1016.0
20260831071301 17 250 12.9 22.5 0.00 0.36 0.36 87 1015.8
20260831071201 17 253 12.9 22.5 0.00 0.36 0.36 87 1015.8
20260831071101 17 234 12.9 22.5 0.00 0.36 0.36 87 1016.0
20260831071001 17 221 12.9 22.5 0.00 0.36 0.36 86 1015.7
20260831070901 17 259 12.9 22.5 0.00 0.36 0.36 86 1016.0
20260831070801 17 271 12.9 25.7 0.00 0.36 0.36 86 1015.7
20260831070700 17 260 12.9 25.7 0.00 0.36 0.36 87 1015.8
20260831070600 17 198 12.9 25.7 0.00 0.36 0.36 87 1015.7
20260831070500 17 281 12.9 25.7 0.00 0.36 0.36 87 1015.7
20260831070401 17 244 12.9 25.7 0.00 0.36 0.36 87 1015.7
20260831070300 17 277 11.3 25.7 0.00 0.36 0.36 87 1015.7
20260831070200 17 265 11.3 25.7 0.00 0.36 0.36 87 1015.7
20260831070100 17 205 12.9 25.7 0.00 0.36 0.36 87 1015.6
20260831070000 17 241 11.3 25.7 0.00 0.36 0.36 87 1015.7
20260831065900 17 217 11.3 25.7 0.00 0.36 0.36 87 1015.7
20260831065801 17 247 11.3 20.9 0.00 0.36 0.36 88 1015.6
20260831065701 17 228 11.3 20.9 0.00 0.36 0.36 88 1015.6
20260831065559 17 235 11.3 20.9 0.00 0.36 0.36 88 1015.6
20260831065459 17 246 11.3 20.9 0.00 0.36 0.36 88 1015.5
20260831065359 17 250 11.3 20.9 0.00 0.36 0.36 88 1015.6
20260831065306 17 252 11.3 20.9 0.00 0.36 0.36 88 1015.6
20260831065258 17 252 11.3 20.9 0.00 0.36 0.36 88 1015.6
20260831065158 17 222 11.3 20.9 0.00 0.36 0.36 89 1015.6
20260831065058 17 217 9.7 20.9 0.00 0.36 0.36 89 1015.7
20260831064958 17 271 9.7 20.9 0.00 0.36 0.36 89 1015.6
20260831064858 17 264 9.7 20.9 0.00 0.36 0.36 89 1015.6
20260831064802 17 279 9.7 20.9 0.00 0.36 0.36 89 1015.6
20260831064758 17 262 9.7 20.9 0.00 0.36 0.36 89 1015.6
20260831064658 17 248 11.3 20.9 0.00 0.36 0.36 89 1015.6
20260831064559 17 243 11.3 20.9 0.00 0.36 0.36 89 1015.5
20260831064458 17 284 11.3 20.9 0.00 0.36 0.36 89 1015.5
20260831064358 17 264 11.3 20.9 0.00 0.36 0.36 89 1015.5
20260831064303 17 273 11.3 17.7 0.00 0.36 0.36 89 1015.5
20260831064259 17 275 11.3 17.7 0.00 0.36 0.36 89 1015.5
20260831064159 17 284 11.3 20.9 0.00 0.36 0.36 89 1015.4
20260831064059 17 215 11.3 20.9 0.00 0.36 0.36 89 1015.4
20260831063959 17 219 11.3 20.9 0.00 0.36 0.36 89 1015.5
20260831063859 17 268 11.3 20.9 0.00 0.36 0.36 89 1015.4
20260831063803 17 231 12.9 20.9 0.00 0.36 0.36 89 1015.5
20260831063758 17 231 12.9 20.9 0.00 0.36 0.36 89 1015.5
20260831063654 17 242 11.3 20.9 0.00 0.36 0.36 89 1015.4
20260831063554 16 236 11.3 20.9 0.00 0.36 0.36 89 1015.5
20260831063454 16 228 11.3 20.9 0.00 0.36 0.36 89 1015.5
20260831063354 16 209 12.9 20.9 0.00 0.36 0.36 89 1015.4
20260831063300 16 255 12.9 20.9 0.00 0.36 0.36 89 1015.4
20260831063254 16 277 12.9 20.9 0.00 0.36 0.36 89 1015.4
20260831063154 16 220 12.9 17.7 0.00 0.36 0.36 90 1015.4
20260831063054 16 271 12.9 19.3 0.00 0.36 0.36 90 1015.5
20260831062955 16 247 12.9 19.3 0.00 0.36 0.36 90 1015.5
20260831062854 16 284 12.9 19.3 0.00 0.36 0.36 90 1015.4
20260831062800 16 233 12.9 20.9 0.00 0.36 0.36 90 1015.4
20260831062755 16 259 12.9 20.9 0.00 0.36 0.36 90 1015.4
20260831062655 16 261 12.9 20.9 0.00 0.36 0.36 90 1015.4
20260831062555 16 289 12.9 20.9 0.00 0.36 0.36 90 1015.4
20260831062454 16 228 12.9 20.9 0.00 0.36 0.36 90 1015.4
20260831062355 16 267 12.9 20.9 0.00 0.36 0.36 90 1015.4
20260831062301 16 244 12.9 20.9 0.00 0.36 0.36 90 1015.4
20260831062254 16 286 12.9 20.9 0.00 0.36 0.36 90 1015.4
20260831062154 16 277 11.3 20.9 0.00 0.36 0.36 90 1015.3
20260831062054 16 295 11.3 20.9 0.00 0.36 0.36 90 1015.4
20260831062025 16 261 11.3 20.9 0.00 0.36 0.36 91 1015.4
20260831062020 16 265 11.3 20.9 0.00 0.36 0.36 90 1015.4
20260831062012 16 274 11.3 20.9 0.00 0.36 0.36 91 1015.4
20260831061748 16 252 11.3 20.9 0.00 0.36 0.36 91 1015.4
20260831061648 16 299 11.3 20.9 0.00 0.36 0.36 91 1015.3
20260831061548 16 279 9.7 20.9 0.00 0.36 0.36 91 1015.4
20260831061525 16 250 9.7 17.7 0.00 0.36 0.36 91 1015.4
20260831061520 16 271 9.7 20.9 0.00 0.36 0.36 91 1015.4
20260831061511 16 244 9.7 20.9 0.00 0.36 0.36 91 1015.5
20260831061242 16 285 9.7 17.7 0.00 0.36 0.36 91 1015.4
20260831061140 16 248 9.7 17.7 0.00 0.36 0.36 91 1015.4
20260831061040 16 273 9.7 14.5 0.00 0.36 0.36 91 1015.3
20260831060940 16 254 9.7 14.5 0.00 0.36 0.36 91 1015.4
20260831060839 16 278 9.7 14.5 0.00 0.36 0.36 91 1015.3
20260831060800 16 271 9.7 14.5 0.00 0.36 0.36 91 1015.3
20260831060734 16 248 9.7 14.5 0.00 0.36 0.36 91 1015.3
20260831060635 16 273 8.0 14.5 0.00 0.36 0.36 91 1015.3
20260831060535 16 260 8.0 14.5 0.00 0.36 0.36 91 1015.3
20260831060435 16 248 8.0 14.5 0.00 0.36 0.36 91 1015.3
20260831060334 16 271 8.0 14.5 0.00 0.36 0.36 91 1015.3
20260831060301 16 244 8.0 14.5 0.00 0.36 0.36 91 1015.3
20260831060234 16 240 8.0 14.5 0.00 0.36 0.36 91 1015.3
20260831060132 16 243 8.0 14.5 0.00 0.36 0.36 91 1015.3
20260831060032 16 227 8.0 14.5 0.00 0.36 0.36 91 1015.3
20260831055930 16 248 8.0 14.5 0.00 0.36 0.36 91 1015.3
20260831055831 16 232 6.4 12.9 0.00 0.36 0.36 91 1015.3
20260831055800 16 215 6.4 12.9 0.00 0.36 0.36 92 1015.3
20260831055731 16 267 6.4 12.9 0.00 0.36 0.36 92 1015.3
20260831055631 16 261 6.4 12.9 0.00 0.36 0.36 91 1015.3
20260831055530 16 277 6.4 12.9 0.00 0.36 0.36 91 1015.3
20260831055523 16 262 6.4 12.9 0.00 0.36 0.36 91 1015.3
20260831055519 16 262 6.4 12.9 0.00 0.36 0.36 91 1015.3
20260831055511 16 269 6.4 12.9 0.00 0.36 0.36 91 1015.3
20260831055229 16 247 6.4 12.9 0.00 0.36 0.36 91 1015.3
20260831055129 16 247 6.4 11.3 0.00 0.36 0.36 91 1015.3
20260831055029 16 242 4.8 11.3 0.00 0.36 0.36 92 1015.3
20260831054929 16 223 4.8 11.3 0.00 0.36 0.36 91 1015.3
20260831054829 16 220 4.8 11.3 0.00 0.36 0.36 91 1015.3
20260831054801 16 215 4.8 11.3 0.00 0.36 0.36 91 1015.3
20260831054729 16 237 4.8 11.3 0.00 0.36 0.36 91 1015.3
20260831054629 16 277 4.8 11.3 0.00 0.36 0.36 91 1015.2
20260831054529 16 273 4.8 11.3 0.00 0.36 0.36 91 1015.3
20260831054429 16 290 4.8 14.5 0.00 0.36 0.36 91 1015.3
20260831054329 16 258 4.8 14.5 0.00 0.36 0.36 91 1015.2
20260831054301 16 261 4.8 14.5 0.00 0.36 0.36 91 1015.2
20260831054229 16 261 4.8 14.5 0.00 0.36 0.36 91 1015.2
20260831054128 16 238 4.8 14.5 0.00 0.36 0.36 91 1015.2
20260831054029 16 267 6.4 14.5 0.00 0.36 0.36 91 1015.2
20260831053929 16 250 6.4 14.5 0.00 0.36 0.36 91 1015.2
20260831053829 16 243 6.4 14.5 0.00 0.36 0.36 91 1015.1
20260831053801 16 274 6.4 14.5 0.00 0.36 0.36 91 1015.2
20260831053729 16 263 6.4 14.5 0.00 0.36 0.36 91 1015.2
20260831053629 16 265 6.4 14.5 0.00 0.36 0.36 91 1015.1
20260831053529 16 235 6.4 14.5 0.00 0.36 0.36 91 1015.1
20260831053429 16 253 6.4 14.5 0.00 0.36 0.36 91 1015.2
20260831053329 16 275 6.4 14.5 0.00 0.36 0.36 91 1015.1
20260831053300 16 284 6.4 14.5 0.00 0.36 0.36 91 1015.2
20260831053229 16 215 6.4 14.5 0.00 0.36 0.36 91 1015.2
20260831053129 16 225 6.4 14.5 0.00 0.36 0.36 91 1015.1
20260831053028 16 231 8.0 16.1 0.00 0.36 0.36 91 1015.2
20260831052928 16 252 8.0 16.1 0.00 0.36 0.36 91 1015.2
20260831052829 16 252 8.0 16.1 0.00 0.36 0.36 91 1015.2
20260831052801 16 225 6.4 16.1 0.00 0.36 0.36 91 1015.1
20260831052728 16 223 6.4 16.1 0.00 0.36 0.36 91 1015.1
20260831052628 16 247 6.4 16.1 0.00 0.36 0.36 91 1015.2
20260831052528 16 238 6.4 16.1 0.00 0.36 0.36 91 1015.1
20260831052425 16 229 6.4 16.1 0.00 0.36 0.36 91 1015.2
20260831052320 16 217 6.4 16.1 0.00 0.36 0.36 91 1015.1
20260831052301 16 269 6.4 16.1 0.00 0.36 0.36 91 1015.1
20260831052220 16 227 6.4 16.1 0.00 0.36 0.36 91 1015.1
20260831052121 16 242 6.4 16.1 0.00 0.36 0.36 91 1015.1
20260831052021 16 220 6.4 12.9 0.00 0.36 0.36 91 1015.1
20260831051917 16 221 6.4 12.9 0.00 0.36 0.36 91 1015.1
20260831051817 16 244 6.4 14.5 0.00 0.36 0.36 91 1015.1
20260831051801 16 232 6.4 14.5 0.00 0.36 0.36 91 1015.1
20260831051716 16 232 6.4 14.5 0.00 0.36 0.36 91 1015.1
20260831051614 16 240 6.4 14.5 0.00 0.36 0.36 91 1015.1
20260831051514 16 242 6.4 14.5 0.00 0.36 0.36 91 1015.2
20260831051412 16 251 6.4 14.5 0.00 0.36 0.36 91 1015.1
20260831051306 16 244 6.4 14.5 0.00 0.36 0.36 90 1015.1
20260831051301 16 230 6.4 14.5 0.00 0.36 0.36 90 1015.1
20260831051206 16 249 6.4 14.5 0.00 0.36 0.36 90 1015.1
20260831051107 16 273 6.4 14.5 0.00 0.36 0.36 91 1015.1
20260831051007 16 260 6.4 14.5 0.00 0.36 0.36 91 1015.1
20260831050905 16 267 6.4 14.5 0.00 0.36 0.36 91 1015.1
20260831050801 16 255 6.4 16.1 0.00 0.36 0.36 90 1015.1
20260831050707 16 276 8.0 16.1 0.00 0.36 0.36 90 1015.1
20260831050606 16 231 8.0 20.9 0.00 0.36 0.36 90 1015.1
20260831050506 16 256 8.0 20.9 0.00 0.36 0.36 90 1015.1
20260831050406 16 208 8.0 20.9 0.00 0.36 0.36 90 1015.1
20260831050306 16 230 8.0 20.9 0.00 0.36 0.36 90 1015.1
20260831050301 16 229 8.0 20.9 0.00 0.36 0.36 90 1015.1
20260831050206 16 224 9.7 20.9 0.00 0.36 0.36 90 1015.0
20260831050107 16 225 9.7 20.9 0.00 0.36 0.36 90 1015.1
20260831050005 16 269 9.7 20.9 0.00 0.36 0.36 90 1015.1
20260831045904 16 260 9.7 20.9 0.00 0.36 0.36 90 1015.1
20260831045801 16 219 9.7 20.9 0.00 0.36 0.36 90 1015.0
20260831045702 16 212 9.7 20.9 0.00 0.36 0.36 90 1015.0
20260831045602 16 183 9.7 17.7 0.00 0.36 0.36 91 1015.0
20260831045502 16 234 8.0 17.7 0.00 0.36 0.36 91 1015.0
20260831045401 16 260 9.7 17.7 0.00 0.36 0.36 91 1015.1
20260831045301 16 226 9.7 17.7 0.00 0.36 0.36 91 1015.1
20260831045201 16 240 9.7 22.5 0.00 0.36 0.36 91 1015.0
20260831045101 16 236 9.7 22.5 0.00 0.36 0.36 91 1015.0
20260831045001 16 230 9.7 22.5 0.00 0.36 0.36 91 1015.0
20260831044901 16 221 9.7 22.5 0.00 0.36 0.36 91 1014.9
20260831044801 16 219 9.7 22.5 0.00 0.38 0.36 91 1015.0
20260831044702 16 223 9.7 22.5 0.00 0.38 0.36 91 1014.9
20260831044601 16 219 9.7 22.5 0.00 0.38 0.36 91 1015.0
20260831044501 16 258 9.7 22.5 0.00 0.38 0.36 91 1014.9
20260831044401 15 209 9.7 22.5 0.00 0.38 0.36 91 1014.8
20260831044301 15 216 9.7 22.5 0.00 0.38 0.36 91 1014.9
20260831044201 15 211 9.7 20.9 0.00 0.38 0.36 91 1014.9
20260831044101 15 193 9.7 19.3 0.00 0.38 0.36 91 1014.9
20260831044001 15 200 9.7 19.3 0.00 0.38 0.36 91 1014.8
20260831043901 15 216 9.7 22.5 0.00 0.38 0.36 91 1014.8
20260831043801 15 222 9.7 22.5 0.00 0.38 0.36 91 1014.9
20260831043701 15 236 9.7 22.5 0.00 0.38 0.36 91 1014.9
20260831043601 15 221 9.7 22.5 0.00 0.38 0.36 91 1014.9
20260831043501 15 221 9.7 22.5 0.00 0.38 0.36 91 1014.9
20260831043400 15 211 9.7 22.5 0.00 0.38 0.36 91 1014.9
20260831043300 15 205 9.7 22.5 0.00 0.38 0.36 91 1014.9
20260831043200 15 204 9.7 22.5 0.00 0.38 0.36 91 1014.9
20260831043100 15 228 9.7 22.5 0.00 0.38 0.36 91 1014.9
20260831043001 15 213 8.0 22.5 0.00 0.38 0.36 91 1015.0
20260831042901 15 212 9.7 19.3 0.00 0.38 0.36 91 1014.8
20260831042801 15 209 9.7 17.7 0.00 0.38 0.36 91 1015.0
20260831042701 15 255 9.7 17.7 0.00 0.38 0.36 91 1014.9
20260831042601 15 242 9.7 17.7 0.00 0.38 0.36 91 1014.9
20260831042500 15 248 9.7 19.3 0.00 0.38 0.36 91 1014.9
20260831042401 15 207 9.7 19.3 0.00 0.38 0.36 91 1014.9
20260831042301 15 221 9.7 19.3 0.00 0.38 0.36 90 1014.9
20260831042201 15 238 9.7 19.3 0.00 0.38 0.36 91 1014.9
20260831042101 15 231 8.0 19.3 0.00 0.38 0.36 91 1014.9
20260831042001 15 220 8.0 19.3 0.00 0.38 0.36 91 1014.9
20260831041901 15 234 8.0 20.9 0.00 0.38 0.36 91 1014.9
20260831041801 15 221 8.0 20.9 0.00 0.38 0.36 91 1014.9
20260831041701 15 248 8.0 20.9 0.00 0.38 0.36 90 1014.8
20260831041601 15 216 8.0 20.9 0.00 0.38 0.36 90 1014.8
20260831041501 15 205 8.0 20.9 0.00 0.38 0.36 90 1014.9
20260831041401 15 234 8.0 20.9 0.00 0.38 0.36 90 1014.9
20260831041301 15 246 8.0 20.9 0.00 0.38 0.36 91 1014.9
20260831041201 15 218 8.0 20.9 0.00 0.38 0.36 91 1014.8
20260831041101 15 234 9.7 20.9 0.00 0.38 0.36 91 1014.8
20260831041000 15 231 9.7 22.5 0.00 0.38 0.36 91 1014.8
20260831040900 15 254 9.7 22.5 0.00 0.38 0.36 91 1014.8
20260831040801 15 259 9.7 22.5 0.00 0.38 0.36 91 1014.8
20260831040700 15 232 9.7 22.5 0.00 0.38 0.36 91 1014.7
20260831040600 15 228 8.0 22.5 0.00 0.38 0.36 91 1014.8
20260831040524 15 220 8.0 22.5 0.00 0.38 0.36 90 1014.7
20260831040520 15 219 8.0 22.5 0.00 0.38 0.36 90 1014.8
20260831040513 15 220 8.0 22.5 0.00 0.38 0.36 91 1014.8
20260831040200 15 194 8.0 22.5 0.00 0.38 0.36 91 1014.8
20260831040100 15 222 6.4 22.5 0.00 0.38 0.36 91 1014.8
20260831040023 15 196 8.0 14.5 0.00 0.38 0.36 91 1014.7
20260831040020 15 225 6.4 14.5 0.00 0.38 0.36 91 1014.8
20260831040012 15 194 6.4 14.5 0.00 0.38 0.36 91 1014.7
20260831035701 15 227 6.4 14.5 0.00 0.38 0.36 91 1014.8
20260831035601 15 202 6.4 16.1 0.00 0.38 0.36 91 1014.8
20260831035502 15 217 6.4 16.1 0.00 0.38 0.36 91 1014.7
20260831035401 15 221 6.4 16.1 0.00 0.38 0.36 91 1014.7
20260831035306 15 178 6.4 16.1 0.00 0.38 0.36 91 1014.6
20260831035201 15 198 6.4 16.1 0.00 0.38 0.36 91 1014.7
20260831035101 15 229 6.4 16.1 0.00 0.38 0.36 91 1014.6
20260831035025 15 206 6.4 16.1 0.00 0.38 0.36 91 1014.6
20260831035021 15 225 6.4 16.1 0.00 0.38 0.36 91 1014.6
20260831035014 15 225 6.4 16.1 0.00 0.38 0.36 90 1014.6
20260831034701 15 227 8.0 16.1 0.03 0.38 0.36 91 1014.6
20260831034601 15 204 8.0 16.1 0.03 0.38 0.36 91 1014.6
20260831034501 15 259 8.0 17.7 0.03 0.38 0.36 91 1014.6
20260831034401 15 234 6.4 17.7 0.03 0.38 0.36 91 1014.6
20260831034301 15 212 6.4 17.7 0.03 0.38 0.36 91 1014.6
20260831034201 15 205 6.4 17.7 0.03 0.38 0.36 91 1014.7
20260831034101 15 198 6.4 17.7 0.03 0.38 0.36 91 1014.6
20260831034023 15 209 6.4 17.7 0.05 0.38 0.36 91 1014.7
20260831034019 15 216 6.4 17.7 0.05 0.38 0.36 91 1014.7
20260831034011 15 203 6.4 17.7 0.05 0.38 0.36 91 1014.7
20260831033701 15 190 6.4 17.7 0.05 0.38 0.36 91 1014.7
20260831033601 15 226 6.4 17.7 0.05 0.38 0.36 91 1014.7
20260831033501 15 199 6.4 14.5 0.05 0.38 0.36 91 1014.8
20260831033400 15 219 6.4 14.5 0.05 0.38 0.36 91 1014.8
20260831033301 15 207 6.4 14.5 0.08 0.38 0.36 91 1014.7
20260831033200 15 217 6.4 14.5 0.08 0.38 0.36 91 1014.8
20260831033100 15 217 6.4 12.9 0.08 0.38 0.36 91 1014.7
20260831033023 15 214 6.4 12.9 0.08 0.38 0.36 91 1014.6
20260831033019 15 248 6.4 12.9 0.08 0.38 0.36 91 1014.8
20260831033012 15 207 6.4 12.9 0.08 0.38 0.36 91 1014.7
20260831032701 15 221 6.4 12.9 0.10 0.38 0.36 91 1014.7
20260831032601 15 209 6.4 12.9 0.10 0.38 0.36 91 1014.7
20260831032501 15 207 6.4 14.5 0.10 0.38 0.36 91 1014.8
20260831032401 15 206 6.4 14.5 0.13 0.38 0.36 91 1014.8
20260831032301 15 233 6.4 14.5 0.15 0.38 0.36 91 1014.8
20260831032201 15 235 6.4 14.5 0.15 0.38 0.36 91 1014.8
20260831032101 15 227 6.4 14.5 0.20 0.38 0.36 91 1014.8
20260831032025 15 210 6.4 14.5 0.20 0.38 0.36 91 1014.8
20260831032021 15 215 6.4 14.5 0.23 0.38 0.36 92 1014.8
20260831032013 15 211 6.4 14.5 0.25 0.38 0.36 92 1014.8
20260831031701 15 236 6.4 14.5 0.28 0.38 0.36 92 1014.8
20260831031601 15 243 6.4 14.5 0.30 0.38 0.36 92 1014.8
20260831031501 15 215 6.4 12.9 0.30 0.38 0.36 92 1014.8
20260831031401 15 259 4.8 12.9 0.30 0.38 0.36 92 1014.8
20260831031301 15 232 4.8 12.9 0.30 0.38 0.36 92 1014.7
20260831031201 15 218 4.8 12.9 0.30 0.38 0.36 92 1014.8
20260831031101 15 285 4.8 12.9 0.30 0.38 0.36 92 1014.8
20260831031000 15 230 4.8 12.9 0.30 0.38 0.36 92 1014.8
20260831030900 15 257 4.8 12.9 0.30 0.38 0.36 92 1014.8
20260831030802 15 225 4.8 12.9 0.30 0.38 0.36 92 1014.8
20260831030758 16 225 4.8 12.9 0.30 0.38 0.36 92 1014.8
20260831030658 15 225 4.8 12.9 0.30 0.38 0.36 92 1014.8
20260831030558 16 246 4.8 12.9 0.30 0.38 0.36 92 1014.9
20260831030458 15 227 4.8 9.7 0.30 0.38 0.36 92 1014.9
20260831030356 15 219 4.8 9.7 0.30 0.38 0.36 91 1014.9
20260831030301 16 219 4.8 9.7 0.33 0.38 0.36 91 1014.9
20260831030255 16 219 4.8 9.7 0.33 0.38 0.36 91 1014.9
20260831030153 16 219 4.8 9.7 0.33 0.38 0.36 91 1014.9
20260831030054 16 228 4.8 9.7 0.33 0.38 0.36 91 1014.9
20260831025951 16 223 4.8 9.7 0.33 0.38 0.36 91 1014.9
20260831025848 16 223 4.8 9.7 0.33 0.38 0.36 91 1014.9
20260831025800 16 221 3.2 9.7 0.33 0.38 0.36 91 1014.9
20260831025746 16 221 3.2 9.7 0.33 0.38 0.36 91 1014.9
20260831025646 16 220 3.2 9.7 0.33 0.38 0.36 91 1014.9
20260831025546 16 225 3.2 9.7 0.33 0.38 0.36 91 1014.9
20260831025528 16 315 3.2 6.4 0.36 0.38 0.36 91 1014.3
20260831025520 16 219 3.2 8.0 0.33 0.38 0.36 91 1014.8
20260831025516 16 228 3.2 6.4 0.36 0.38 0.36 91 1014.5
20260831025240 16 320 3.2 6.4 0.36 0.38 0.36 91 1014.3
20260831025140 16 320 3.2 9.7 0.36 0.38 0.36 91 1014.1
20260831025039 16 320 3.2 9.7 0.36 0.38 0.36 90 1013.9
20260831024939 16 320 4.8 9.7 0.36 0.38 0.36 90 1013.9
20260831024838 16 320 4.8 11.3 0.36 0.38 0.33 90 1014.2
20260831024801 16 265 4.8 11.3 0.36 0.38 0.33 90 1014.3
20260831024738 16 264 4.8 11.3 0.33 0.36 0.33 90 1014.3
20260831024635 16 263 4.8 11.3 0.33 0.36 0.33 90 1014.4
20260831024535 16 264 4.8 11.3 0.33 0.36 0.33 90 1014.5
20260831024433 16 260 6.4 11.3 0.33 0.36 0.33 90 1014.7
20260831024332 16 254 6.4 11.3 0.33 0.36 0.33 90 1014.9
20260831024301 16 258 6.4 12.9 0.33 0.36 0.33 90 1015.0
20260831024232 16 259 6.4 12.9 0.33 0.36 0.33 90 1015.0
20260831024132 16 263 6.4 12.9 0.33 0.36 0.33 90 1015.0
20260831024032 16 257 6.4 12.9 0.33 0.36 0.33 90 1015.0
20260831024028 16 245 6.4 12.9 0.33 0.33 0.33 90 1015.2
20260831024015 16 241 6.4 12.9 0.33 0.33 0.33 90 1015.2
20260831024011 16 243 6.4 12.9 0.33 0.33 0.33 90 1015.2
20260831023732 16 250 6.4 12.9 0.33 0.33 0.30 90 1015.2
20260831023632 16 259 6.4 12.9 0.30 0.33 0.30 89 1015.2
20260831023532 16 263 8.0 19.3 0.30 0.33 0.30 89 1015.2
20260831023432 16 245 8.0 19.3 0.30 0.33 0.28 89 1015.2
20260831023332 16 267 9.7 19.3 0.28 0.30 0.28 89 1015.2
20260831023301 16 265 9.7 20.9 0.28 0.30 0.28 89 1015.1
20260831023232 16 261 9.7 24.1 0.28 0.30 0.28 89 1015.1
20260831023131 16 264 11.3 24.1 0.28 0.30 0.28 89 1015.1
20260831023029 16 284 12.9 24.1 0.28 0.30 0.28 89 1015.2
20260831022930 16 236 12.9 24.1 0.28 0.30 0.28 88 1015.3
20260831022829 16 273 14.5 24.1 0.28 0.30 0.28 89 1015.4
20260831022801 16 275 14.5 24.1 0.28 0.30 0.25 88 1015.4
20260831022729 16 277 14.5 24.1 0.28 0.30 0.25 88 1015.4
20260831022628 16 273 16.1 25.7 0.25 0.28 0.25 88 1015.4
20260831022528 16 262 16.1 25.7 0.25 0.28 0.23 88 1015.6
20260831022428 16 269 16.1 25.7 0.23 0.25 0.23 88 1015.6
20260831022328 16 257 16.1 25.7 0.23 0.23 0.23 88 1015.6
20260831022301 16 234 16.1 25.7 0.23 0.23 0.20 88 1015.7
20260831022227 16 254 16.1 29.0 0.20 0.23 0.15 88 1015.7
20260831022122 16 265 16.1 29.0 0.18 0.20 0.15 88 1016.0
20260831022022 16 274 16.1 29.0 0.15 0.18 0.15 88 1016.0
20260831021922 16 282 16.1 29.0 0.15 0.15 0.15 88 1015.8
20260831021821 16 278 16.1 29.0 0.13 0.15 0.10 87 1016.1
20260831021801 16 259 16.1 29.0 0.10 0.13 0.08 87 1016.1
20260831021721 16 269 16.1 29.0 0.08 0.10 0.08 87 1016.1
20260831021616 16 253 16.1 29.0 0.05 0.08 0.05 87 1015.7
20260831021516 16 248 16.1 29.0 0.05 0.08 0.05 87 1016.1
20260831021416 16 262 17.7 29.0 0.05 0.08 0.05 87 1015.6
20260831021316 16 246 16.1 29.0 0.05 0.08 0.05 87 1015.7
20260831021301 16 259 16.1 29.0 0.05 0.08 0.05 87 1015.7
20260831021215 16 278 16.1 27.4 0.05 0.08 0.05 87 1015.6
20260831021110 16 263 16.1 29.0 0.05 0.08 0.05 87 1015.7
20260831021010 16 271 16.1 29.0 0.05 0.08 0.05 87 1015.6
20260831020910 16 271 16.1 29.0 0.05 0.08 0.05 86 1015.4
20260831020809 16 285 16.1 29.0 0.05 0.08 0.05 86 1015.6
20260831020800 16 249 16.1 29.0 0.05 0.08 0.05 86 1015.6
20260831020710 17 256 16.1 29.0 0.05 0.08 0.05 86 1015.4
20260831020603 17 295 16.1 43.5 0.05 0.08 0.05 86 1015.4
20260831020503 17 286 17.7 43.5 0.05 0.08 0.05 87 1015.1
20260831020404 17 252 17.7 46.7 0.05 0.08 0.05 87 1014.9
20260831020304 17 259 19.3 46.7 0.05 0.05 0.05 87 1014.8
20260831020300 17 269 19.3 46.7 0.05 0.05 0.05 87 1014.8
20260831020203 17 264 19.3 46.7 0.05 0.05 0.05 87 1014.8
20260831020002 17 254 19.3 46.7 0.05 0.05 0.05 87 1014.8
20260831015901 17 313 19.3 46.7 0.05 0.05 0.05 87 1014.7
20260831015802 17 287 17.7 46.7 0.05 0.05 0.05 87 1015.0
20260831015701 17 257 16.1 46.7 0.05 0.05 0.03 87 1014.9
20260831015602 17 267 14.5 46.7 0.03 0.05 0.03 86 1014.9
20260831015520 17 302 12.9 46.7 0.03 0.05 0.00 86 1015.0
20260831015516 17 290 9.7 30.6 0.00 0.03 0.00 86 1014.7
20260831015512 17 313 8.0 30.6 0.00 0.03 0.00 86 1014.7
20260831015202 17 273 6.4 27.4 0.00 0.03 0.00 86 1014.6
20260831015101 17 294 4.8 25.7 0.00 0.03 0.00 86 1014.4
20260831015001 17 271 3.2 20.9 0.00 0.03 0.00 86 1014.3
20260831014901 17 288 1.6 17.7 0.00 0.03 0.00 86 1013.7
20260831014801 17 273 0.0 11.3 0.00 0.03 0.00 85 1013.2
20260831014701 17 249 0.0 6.4 0.00 0.03 0.00 85 1012.8
20260831014601 17 105 0.0 3.2 0.00 0.03 0.00 85 1012.6
20260831014500 17 105 0.0 1.6 0.00 0.03 0.00 85 1012.5
20260831014400 17 105 0.0 1.6 0.00 0.03 0.00 85 1012.4
20260831014301 17 105 0.0 1.6 0.00 0.03 0.00 85 1012.4
20260831014201 17 105 0.0 1.6 0.00 0.03 0.00 85 1012.3
20260831014059 17 105 0.0 1.6 0.00 0.03 0.00 85 1012.1
20260831013957 17 105 0.0 1.6 0.00 0.03 0.00 85 1012.3
20260831013852 17 105 0.0 3.2 0.00 0.03 0.00 85 1012.3
20260831013801 17 105 0.0 3.2 0.00 0.03 0.00 85 1012.3
20260831013752 17 105 0.0 3.2 0.00 0.03 0.00 85 1012.3
20260831013652 17 105 0.0 3.2 0.00 0.03 0.00 85 1012.3
20260831013552 17 105 0.0 3.2 0.00 0.03 0.00 85 1012.3
20260831013451 17 105 0.0 3.2 0.00 0.03 0.00 85 1012.3
20260831013351 17 105 0.0 3.2 0.00 0.03 0.00 85 1012.3
20260831013300 17 105 0.0 3.2 0.00 0.03 0.00 85 1012.3
20260831013250 17 105 0.0 3.2 0.00 0.03 0.00 85 1012.3
20260831013149 17 105 1.6 3.2 0.00 0.03 0.00 85 1012.3
20260831013048 17 105 0.0 3.2 0.00 0.03 0.00 85 1012.3
20260831012946 17 105 0.0 3.2 0.00 0.03 0.00 85 1012.3
20260831012844 17 105 1.6 3.2 0.00 0.03 0.00 85 1012.3
20260831012801 17 105 1.6 3.2 0.00 0.03 0.00 84 1012.3
20260831012744 17 105 1.6 3.2 0.00 0.03 0.00 84 1012.3
20260831012644 17 105 1.6 3.2 0.00 0.03 0.00 84 1012.3
20260831012542 17 105 1.6 3.2 0.00 0.03 0.00 85 1012.3
20260831012441 17 105 1.6 3.2 0.00 0.03 0.00 85 1012.3
20260831012342 17 105 1.6 3.2 0.00 0.03 0.00 85 1012.3
20260831012300 17 105 1.6 3.2 0.00 0.03 0.00 85 1012.4
20260831012241 17 105 1.6 3.2 0.00 0.03 0.00 85 1012.4
20260831012139 17 105 1.6 3.2 0.00 0.03 0.00 85 1012.4
20260831012040 17 104 1.6 3.2 0.00 0.03 0.00 85 1012.4
20260831012028 17 105 1.6 4.8 0.00 0.03 0.00 85 1012.4
20260831012017 17 105 1.6 3.2 0.00 0.03 0.00 85 1012.4
20260831012013 17 105 1.6 3.2 0.00 0.03 0.00 85 1012.3
20260831011740 17 105 1.6 4.8 0.00 0.03 0.00 85 1012.4
20260831011640 17 105 1.6 4.8 0.00 0.03 0.00 85 1012.4
20260831011540 17 105 1.6 4.8 0.00 0.03 0.00 85 1012.4
20260831011440 17 105 1.6 4.8 0.00 0.03 0.00 85 1012.4
20260831011339 17 105 1.6 4.8 0.00 0.03 0.00 85 1012.4
20260831011301 17 105 1.6 4.8 0.00 0.03 0.00 85 1012.4
20260831011237 17 105 1.6 4.8 0.00 0.03 0.00 85 1012.4
20260831011136 17 105 1.6 4.8 0.00 0.03 0.00 85 1012.5
20260831011036 17 105 1.6 4.8 0.00 0.03 0.00 85 1012.4
20260831010934 17 105 1.6 4.8 0.00 0.03 0.00 85 1012.4
20260831010834 17 105 1.6 4.8 0.00 0.03 0.00 85 1012.4
20260831010801 17 105 1.6 4.8 0.00 0.03 0.00 85 1012.4
20260831010733 17 105 1.6 4.8 0.00 0.03 0.00 85 1012.4
20260831010632 17 106 1.6 3.2 0.00 0.03 0.00 85 1012.4
20260831010531 17 107 1.6 3.2 0.00 0.03 0.00 85 1012.4
20260831010431 17 106 0.0 3.2 0.00 0.03 0.00 85 1012.4
20260831010301 17 107 0.0 3.2 0.00 0.03 0.00 85 1012.5
20260831010230 17 107 0.0 3.2 0.00 0.03 0.00 85 1012.5
20260831010129 17 107 0.0 4.8 0.00 0.03 0.00 85 1012.5
20260831010029 17 107 0.0 4.8 0.00 0.03 0.00 85 1012.5
20260831005930 17 107 1.6 4.8 0.00 0.03 0.00 85 1012.5
20260831005801 17 107 1.6 4.8 0.00 0.03 0.00 85 1012.5
20260831005729 17 107 1.6 4.8 0.00 0.03 0.00 85 1012.5
20260831005629 17 107 1.6 4.8 0.00 0.03 0.00 85 1012.6
20260831005529 17 107 1.6 4.8 0.00 0.03 0.00 85 1012.6
20260831005429 17 107 1.6 4.8 0.00 0.03 0.00 85 1012.6
20260831005329 17 107 1.6 4.8 0.00 0.03 0.00 85 1012.6
20260831005301 17 107 1.6 4.8 0.00 0.03 0.00 85 1012.7
20260831005229 17 107 1.6 4.8 0.00 0.03 0.00 85 1012.7
20260831005129 17 107 1.6 4.8 0.00 0.03 0.00 85 1012.7
20260831005029 17 107 1.6 4.8 0.00 0.03 0.00 85 1012.7
20260831004929 17 107 1.6 4.8 0.00 0.03 0.00 85 1012.7
20260831004829 17 107 1.6 4.8 0.00 0.03 0.00 85 1012.7
20260831004801 17 107 0.0 4.8 0.00 0.03 0.00 85 1012.7
20260831004729 17 107 0.0 4.8 0.00 0.03 0.00 85 1012.7
20260831004629 17 107 0.0 4.8 0.00 0.03 0.00 85 1012.7
20260831004529 17 105 0.0 3.2 0.00 0.03 0.00 85 1012.7
20260831004515 17 105 0.0 3.2 0.00 0.03 0.00 85 1012.7
20260831004511 17 106 0.0 3.2 0.00 0.03 0.00 85 1012.7
20260831004228 17 106 0.0 3.2 0.00 0.03 0.00 85 1012.7
20260831004128 17 106 0.0 3.2 0.00 0.03 0.00 85 1012.7
20260831004029 17 106 0.0 3.2 0.00 0.03 0.00 85 1012.7
20260831003929 17 106 0.0 3.2 0.00 0.03 0.00 85 1012.7
20260831003800 17 106 0.0 3.2 0.00 0.03 0.00 85 1012.7
20260831003729 17 106 0.0 3.2 0.00 0.03 0.00 85 1012.7
20260831003629 17 106 1.6 3.2 0.00 0.03 0.00 85 1012.7
20260831003529 17 106 1.6 3.2 0.00 0.03 0.00 85 1012.7
20260831003515 17 106 1.6 3.2 0.00 0.03 0.00 85 1012.7
20260831003511 17 106 1.6 3.2 0.00 0.03 0.00 85 1012.7
20260831003224 17 106 1.6 3.2 0.00 0.03 0.00 85 1012.7
20260831003122 17 106 0.0 3.2 0.00 0.03 0.00 85 1012.7
20260831003022 17 106 1.6 3.2 0.00 0.03 0.00 85 1012.8
20260831002922 17 106 1.6 3.2 0.00 0.03 0.00 85 1012.8
20260831002801 17 106 1.6 3.2 0.00 0.03 0.00 85 1012.7
20260831002721 17 106 1.6 3.2 0.00 0.03 0.00 85 1012.7
20260831002619 17 106 1.6 3.2 0.00 0.03 0.00 84 1012.7
20260831002519 17 106 1.6 3.2 0.00 0.03 0.00 84 1012.8
20260831002515 17 106 1.6 3.2 0.00 0.03 0.00 84 1012.8
20260831002511 17 106 1.6 3.2 0.00 0.03 0.00 84 1012.8
20260831002217 17 106 1.6 3.2 0.00 0.03 0.00 84 1012.9
20260831002117 17 106 1.6 3.2 0.00 0.03 0.00 84 1012.8
20260831002017 17 106 1.6 3.2 0.00 0.03 0.00 84 1012.8
20260831001917 17 106 1.6 3.2 0.00 0.03 0.00 84 1012.8
20260831001801 17 106 1.6 3.2 0.00 0.03 0.00 84 1012.9
20260831001718 17 106 1.6 3.2 0.00 0.03 0.00 84 1012.9
20260831001617 17 106 1.6 3.2 0.00 0.03 0.00 84 1012.9
20260831001514 17 106 1.6 3.2 0.00 0.03 0.00 84 1012.9
20260831001414 17 106 1.6 3.2 0.00 0.03 0.00 84 1012.9
20260831001314 17 105 1.6 3.2 0.00 0.03 0.00 84 1012.9
20260831001300 17 106 1.6 3.2 0.00 0.03 0.00 84 1012.9
20260831001213 17 106 1.6 3.2 0.00 0.03 0.00 84 1012.9
20260831001114 17 106 1.6 3.2 0.00 0.03 0.00 84 1012.9
20260831001013 17 105 1.6 3.2 0.00 0.03 0.00 84 1012.9
20260831000913 17 106 1.6 3.2 0.00 0.03 0.00 84 1012.9
20260831000801 17 105 0.0 3.2 0.00 0.03 0.00 84 1013.0
20260831000713 17 105 0.0 3.2 0.00 0.03 0.00 84 1013.0
20260831000613 17 105 0.0 3.2 0.00 0.03 0.00 84 1013.0
20260831000521 17 105 0.0 3.2 0.00 0.03 0.00 84 1013.0
20260831000517 17 105 0.0 3.2 0.00 0.03 0.00 84 1013.0
20260831000513 17 105 0.0 3.2 0.00 0.03 0.00 84 1013.0
20260831000211 17 105 1.6 3.2 0.00 0.03 0.00 84 1013.0
20260831000112 17 105 1.6 3.2 0.00 0.03 0.00 84 1013.0
20260831000011 17 105 1.6 3.2 0.00 0.03 0.00 84 1013.0
20260830235911 17 105 1.6 3.2 0.00 0.03 0.00 84 1013.0
20260830235801 17 105 1.6 3.2 0.00 0.03 0.00 83 1013.0
20260830235711 17 105 1.6 3.2 0.00 0.03 0.00 83 1013.0
20260830235611 17 105 1.6 3.2 0.00 0.03 0.00 83 1013.1
20260830235511 17 105 1.6 3.2 0.00 0.03 0.00 83 1013.0
20260830235411 17 105 1.6 3.2 0.00 0.03 0.00 83 1013.0
20260830235301 17 105 1.6 3.2 0.00 0.03 0.00 83 1013.0
20260830235211 17 105 1.6 3.2 0.00 0.03 0.00 83 1013.0
20260830235111 17 105 1.6 3.2 0.00 0.03 0.00 83 1013.0
20260830235011 17 105 1.6 3.2 0.00 0.03 0.00 83 1013.0
20260830234911 17 105 1.6 3.2 0.00 0.03 0.00 83 1013.0
20260830234801 17 105 1.6 3.2 0.00 0.03 0.00 83 1013.0
20260830234712 17 105 1.6 3.2 0.00 0.03 0.00 83 1013.0
20260830234612 17 105 1.6 3.2 0.00 0.03 0.00 83 1013.0
20260830234511 17 105 1.6 3.2 0.00 0.03 0.00 83 1013.0
20260830234407 17 105 1.6 3.2 0.00 0.03 0.00 83 1013.0
20260830234301 17 105 1.6 3.2 0.00 0.03 0.00 83 1013.0
20260830234208 17 105 1.6 3.2 0.00 0.03 0.00 83 1013.0
20260830234107 17 105 1.6 3.2 0.00 0.03 0.00 83 1013.0
20260830234020 17 105 1.6 3.2 0.00 0.03 0.00 83 1013.0
20260830234016 17 105 1.6 3.2 0.00 0.03 0.00 83 1013.0
20260830234012 17 105 1.6 3.2 0.00 0.03 0.00 83 1013.0
20260830233708 17 105 1.6 3.2 0.00 0.03 0.00 83 1013.0
20260830233608 17 105 1.6 3.2 0.00 0.03 0.00 83 1013.0
20260830233521 17 105 1.6 3.2 0.00 0.03 0.00 83 1013.0
20260830233517 17 105 1.6 3.2 0.00 0.03 0.00 83 1013.1
20260830233513 17 105 1.6 3.2 0.00 0.03 0.00 83 1013.1
20260830233207 17 105 1.6 3.2 0.00 0.03 0.00 83 1013.1
20260830233108 17 105 1.6 3.2 0.00 0.03 0.00 83 1013.1
20260830233008 17 105 1.6 3.2 0.00 0.03 0.00 83 1013.1
20260830232908 17 106 1.6 3.2 0.00 0.03 0.00 83 1013.1
20260830232807 17 106 1.6 3.2 0.00 0.03 0.00 83 1013.1
20260830232759 17 106 1.6 3.2 0.00 0.03 0.00 83 1013.1
20260830232707 17 106 1.6 6.4 0.00 0.03 0.00 83 1013.1
20260830232607 17 106 0.0 6.4 0.00 0.03 0.00 83 1013.1
20260830232503 17 106 0.0 6.4 0.00 0.03 0.00 83 1013.1
20260830232403 17 106 0.0 6.4 0.00 0.03 0.00 83 1013.1
20260830232306 17 106 1.6 6.4 0.00 0.03 0.00 83 1013.1
20260830232301 17 106 1.6 6.4 0.00 0.03 0.00 83 1013.1
20260830232204 17 106 1.6 6.4 0.00 0.03 0.00 83 1013.1
20260830232103 17 106 1.6 6.4 0.00 0.03 0.00 83 1013.1
20260830232004 17 106 1.6 6.4 0.00 0.03 0.00 83 1013.2
20260830231904 17 107 1.6 6.4 0.00 0.03 0.00 83 1013.2
20260830231804 17 107 1.6 6.4 0.00 0.03 0.00 83 1013.2
20260830231759 17 107 1.6 6.4 0.00 0.03 0.00 83 1013.2
20260830231704 17 123 1.6 4.8 0.00 0.03 0.00 83 1013.2
20260830231604 17 124 1.6 4.8 0.00 0.03 0.00 83 1013.2
20260830231504 17 123 1.6 4.8 0.00 0.03 0.00 83 1013.2
20260830231404 17 124 1.6 4.8 0.00 0.03 0.00 83 1013.2
20260830231303 17 124 1.6 4.8 0.00 0.03 0.00 83 1013.2
20260830231259 17 124 1.6 4.8 0.00 0.03 0.00 83 1013.2
20260830231203 17 125 1.6 4.8 0.00 0.03 0.00 84 1013.2
20260830231103 17 125 1.6 4.8 0.00 0.03 0.00 84 1013.2
20260830231003 17 125 1.6 4.8 0.00 0.03 0.00 83 1013.2
20260830230903 17 125 1.6 4.8 0.00 0.03 0.00 84 1013.2
20260830230804 17 125 1.6 4.8 0.00 0.03 0.00 84 1013.2
20260830230800 17 125 1.6 4.8 0.00 0.03 0.00 84 1013.2
20260830230704 17 126 1.6 4.8 0.00 0.03 0.00 84 1013.2
20260830230603 17 127 1.6 4.8 0.00 0.03 0.00 83 1013.2
20260830230501 17 127 1.6 4.8 0.00 0.03 0.00 84 1013.2
20260830230401 17 127 1.6 4.8 0.00 0.03 0.00 84 1013.3
20260830230304 17 127 1.6 3.2 0.00 0.03 0.00 84 1013.3
20260830230300 17 127 1.6 3.2 0.00 0.03 0.00 84 1013.3
20260830230202 17 128 1.6 3.2 0.00 0.03 0.00 84 1013.3
20260830230002 17 128 1.6 3.2 0.00 0.03 0.00 84 1013.3
20260830225902 17 128 1.6 3.2 0.00 0.03 0.00 84 1013.3
20260830225803 17 128 1.6 3.2 0.00 0.03 0.00 84 1013.4
20260830225759 17 128 1.6 3.2 0.00 0.03 0.00 84 1013.4
20260830225702 17 128 0.0 3.2 0.00 0.03 0.00 84 1013.4
20260830225601 17 128 0.0 3.2 0.00 0.03 0.00 84 1013.4
20260830225501 17 128 0.0 3.2 0.00 0.03 0.00 84 1013.4
20260830225401 17 128 0.0 3.2 0.00 0.03 0.00 84 1013.4
20260830225305 17 128 0.0 3.2 0.00 0.03 0.00 84 1013.4
20260830225300 17 128 0.0 3.2 0.00 0.03 0.00 84 1013.4
20260830225201 17 128 0.0 4.8 0.00 0.03 0.00 84 1013.3
20260830225101 17 128 0.0 4.8 0.00 0.03 0.00 84 1013.4
20260830225001 17 128 1.6 4.8 0.00 0.03 0.00 84 1013.4
20260830224901 17 128 1.6 4.8 0.00 0.03 0.00 84 1013.4
20260830224804 17 128 1.6 4.8 0.00 0.03 0.00 84 1013.4
20260830224759 17 128 1.6 4.8 0.00 0.03 0.00 84 1013.4
20260830224700 17 128 1.6 4.8 0.00 0.03 0.00 83 1013.4
20260830224601 17 128 1.6 4.8 0.00 0.03 0.00 83 1013.4
20260830224501 17 128 1.6 4.8 0.00 0.03 0.00 83 1013.4
20260830224401 17 128 1.6 4.8 0.00 0.03 0.00 83 1013.4
20260830224301 17 129 1.6 4.8 0.00 0.03 0.00 83 1013.4
20260830224252 17 129 1.6 4.8 0.00 0.03 0.00 83 1013.4
20260830224200 17 129 1.6 4.8 0.00 0.03 0.00 83 1013.4
20260830224100 17 131 1.6 4.8 0.00 0.03 0.00 83 1013.4
20260830224014 17 132 1.6 4.8 0.00 0.03 0.00 83 1013.3
20260830224005 17 131 1.6 4.8 0.00 0.03 0.00 83 1013.4
20260830224001 17 131 1.6 4.8 0.00 0.03 0.00 83 1013.3
20260830223957 17 132 1.6 4.8 0.00 0.03 0.00 83 1013.3
20260830223700 17 132 1.6 4.8 0.00 0.03 0.00 83 1013.3
20260830223604 17 132 1.6 4.8 0.00 0.03 0.00 83 1013.3
20260830223501 18 132 1.6 4.8 0.00 0.03 0.00 83 1013.4
20260830223401 18 134 1.6 4.8 0.00 0.03 0.00 83 1013.4
20260830223301 18 136 1.6 4.8 0.00 0.03 0.00 82 1013.4
20260830223240 18 136 1.6 4.8 0.00 0.03 0.00 82 1013.4
20260830223202 18 136 1.6 4.8 0.00 0.03 0.00 82 1013.4
20260830223102 18 136 0.0 4.8 0.00 0.03 0.00 82 1013.4
20260830223005 18 136 0.0 3.2 0.00 0.03 0.00 83 1013.5
20260830223001 18 137 0.0 3.2 0.00 0.03 0.00 82 1013.4
20260830222957 18 136 0.0 3.2 0.00 0.03 0.00 82 1013.4
20260830222953 18 136 0.0 3.2 0.00 0.03 0.00 83 1013.5
20260830222701 18 136 0.0 3.2 0.00 0.03 0.00 83 1013.5
20260830222601 18 136 0.0 3.2 0.00 0.03 0.00 82 1013.5
20260830222501 18 136 0.0 3.2 0.00 0.03 0.00 82 1013.5
20260830222401 18 136 0.0 3.2 0.00 0.03 0.00 82 1013.5
20260830222301 18 136 0.0 3.2 0.00 0.03 0.00 82 1013.5
20260830222228 18 136 1.6 4.8 0.00 0.03 0.00 82 1013.6
20260830222224 18 136 0.0 3.2 0.00 0.03 0.00 82 1013.5
20260830222220 18 136 0.0 3.2 0.00 0.03 0.00 82 1013.5
20260830222212 18 136 0.0 3.2 0.00 0.03 0.00 82 1013.5
20260830221953 18 136 0.0 3.2 0.00 0.03 0.00 82 1013.5
20260830221949 18 136 1.6 4.8 0.00 0.03 0.00 82 1013.6
20260830221702 18 136 1.6 4.8 0.00 0.03 0.00 82 1013.6
20260830221600 18 136 1.6 4.8 0.00 0.03 0.00 82 1013.6
20260830221500 18 136 1.6 4.8 0.00 0.03 0.00 82 1013.6
20260830221359 18 136 1.6 4.8 0.00 0.03 0.00 82 1013.6
20260830221239 18 136 1.6 4.8 0.00 0.03 0.00 82 1013.6
20260830221227 18 137 1.6 3.2 0.00 0.03 0.00 82 1013.7
20260830221223 18 136 1.6 4.8 0.00 0.03 0.00 82 1013.6
20260830221218 18 136 1.6 4.8 0.00 0.03 0.00 82 1013.6
20260830220957 18 136 1.6 4.8 0.00 0.03 0.00 82 1013.6
20260830220953 18 136 1.6 4.8 0.00 0.03 0.00 82 1013.7
20260830220949 18 137 1.6 3.2 0.00 0.03 0.00 82 1013.7
20260830220656 18 138 1.6 3.2 0.00 0.03 0.00 82 1013.7
20260830220556 18 138 1.6 3.2 0.00 0.03 0.00 82 1013.7
20260830220458 18 138 1.6 3.2 0.00 0.03 0.00 82 1013.7
20260830220454 18 138 1.6 3.2 0.00 0.03 0.00 82 1013.7
20260830220450 18 138 1.6 3.2 0.00 0.03 0.00 82 1013.7
20260830220155 18 138 0.0 3.2 0.00 0.03 0.00 82 1013.7
20260830220052 18 138 0.0 3.2 0.00 0.03 0.00 83 1013.7
20260830215952 18 138 0.0 3.2 0.00 0.03 0.03 82 1013.8
20260830215852 18 138 0.0 3.2 0.00 0.03 0.03 82 1013.7
20260830215737 18 138 0.0 3.2 0.00 0.03 0.03 82 1013.7
20260830215648 18 138 0.0 3.2 0.00 0.03 0.03 82 1013.8
20260830215548 18 138 0.0 3.2 0.00 0.03 0.03 82 1013.8
20260830215448 18 138 0.0 3.2 0.00 0.03 0.03 82 1013.9
20260830215348 18 138 0.0 3.2 0.00 0.03 0.03 82 1013.9
20260830215237 18 138 0.0 3.2 0.00 0.03 0.03 82 1013.9
20260830215147 18 138 1.6 4.8 0.00 0.03 0.03 82 1013.8
20260830215047 18 138 1.6 4.8 0.00 0.03 0.03 82 1013.9
20260830214955 18 138 1.6 4.8 0.00 0.03 0.03 82 1013.9
20260830214951 18 138 1.6 4.8 0.00 0.03 0.03 82 1013.9
20260830214947 18 138 1.6 4.8 0.00 0.03 0.03 82 1013.8
20260830214640 18 138 1.6 4.8 0.00 0.03 0.03 82 1013.8
20260830214541 18 138 1.6 4.8 0.00 0.03 0.03 82 1013.8
20260830214459 18 138 1.6 4.8 0.00 0.03 0.03 82 1013.8
20260830214454 18 138 1.6 4.8 0.00 0.03 0.03 82 1013.9
20260830214450 18 138 1.6 4.8 0.00 0.03 0.03 82 1013.9
20260830214134 18 138 1.6 4.8 0.00 0.03 0.03 82 1013.9
20260830214038 18 140 1.6 3.2 0.00 0.03 0.03 83 1013.9
20260830213932 18 140 1.6 3.2 0.00 0.03 0.03 82 1013.9
20260830213830 18 140 1.6 3.2 0.00 0.03 0.03 82 1013.9
20260830213730 18 140 1.6 3.2 0.00 0.03 0.03 82 1013.9
20260830213630 18 140 1.6 3.2 0.00 0.03 0.03 82 1013.9
20260830213529 18 140 1.6 3.2 0.00 0.03 0.03 82 1013.9
20260830213430 18 140 1.6 3.2 0.00 0.03 0.03 82 1013.9
20260830213330 18 140 1.6 3.2 0.00 0.03 0.03 82 1013.9
20260830213229 18 140 1.6 3.2 0.00 0.03 0.03 82 1013.9
20260830213129 18 140 1.6 3.2 0.00 0.03 0.03 82 1013.8
20260830213033 18 140 1.6 3.2 0.00 0.03 0.03 82 1013.8
20260830213003 18 140 0.0 3.2 0.00 0.03 0.03 82 1013.9
20260830212949 18 140 1.6 3.2 0.00 0.03 0.03 82 1013.9
20260830212944 18 140 1.6 3.2 0.00 0.03 0.03 82 1013.9
20260830212729 18 140 0.0 3.2 0.00 0.03 0.03 81 1013.9
20260830212628 18 140 0.0 3.2 0.00 0.03 0.03 81 1013.9
20260830212532 18 140 0.0 3.2 0.00 0.03 0.03 81 1013.8
20260830212429 18 140 0.0 3.2 0.00 0.03 0.03 81 1013.9
20260830212328 18 140 0.0 3.2 0.00 0.03 0.03 82 1013.9
20260830212229 18 140 0.0 1.6 0.00 0.03 0.03 82 1013.9
20260830212129 18 140 0.0 3.2 0.00 0.03 0.03 81 1013.9
20260830212037 18 140 0.0 3.2 0.00 0.03 0.03 81 1013.9
20260830211952 18 140 0.0 3.2 0.00 0.03 0.03 81 1013.9
20260830211948 18 140 0.0 3.2 0.00 0.03 0.03 81 1013.9
20260830211944 18 140 0.0 3.2 0.00 0.03 0.03 81 1013.9
20260830211728 18 140 0.0 3.2 0.00 0.03 0.03 81 1013.9
20260830211628 18 140 0.0 3.2 0.00 0.03 0.03 81 1013.9
20260830211528 18 140 1.6 3.2 0.00 0.03 0.03 81 1013.9
20260830211429 18 140 1.6 3.2 0.00 0.03 0.03 81 1013.9
20260830211324 18 140 1.6 3.2 0.00 0.03 0.03 81 1013.9
20260830211225 18 140 1.6 3.2 0.00 0.03 0.03 81 1013.9
20260830211124 18 140 1.6 3.2 0.00 0.03 0.03 81 1013.9
20260830211025 18 140 1.6 3.2 0.00 0.03 0.03 82 1013.9
20260830210924 18 140 1.6 3.2 0.00 0.03 0.03 81 1013.9
20260830210820 18 140 1.6 3.2 0.00 0.03 0.03 81 1013.9
20260830210720 18 140 1.6 3.2 0.00 0.03 0.03 81 1013.9
20260830210620 18 141 1.6 3.2 0.00 0.03 0.03 81 1013.9
20260830210524 18 141 1.6 3.2 0.00 0.03 0.03 81 1014.1
20260830210420 18 141 1.6 3.2 0.00 0.03 0.03 81 1013.9
20260830210320 18 141 1.6 4.8 0.00 0.03 0.03 81 1014.1
20260830210223 18 141 1.6 6.4 0.00 0.03 0.03 81 1014.1
20260830210219 18 141 1.6 6.4 0.00 0.03 0.03 81 1013.9
20260830210207 18 141 1.6 6.4 0.00 0.03 0.03 81 1014.1
20260830210203 18 141 1.6 6.4 0.00 0.03 0.03 81 1013.9
20260830205944 18 141 1.6 6.4 0.00 0.03 0.03 81 1013.9
20260830205940 18 141 1.6 6.4 0.00 0.03 0.03 81 1013.9
20260830205714 18 141 1.6 6.4 0.00 0.03 0.03 81 1013.9
20260830205614 18 141 1.6 6.4 0.00 0.03 0.03 81 1013.9
20260830205512 18 141 1.6 6.4 0.00 0.03 0.03 81 1013.9
20260830205411 18 141 1.6 6.4 0.00 0.03 0.03 81 1013.9
20260830205310 18 142 1.6 6.4 0.00 0.03 0.03 81 1013.9
20260830205209 18 142 1.6 4.8 0.00 0.03 0.03 81 1013.9
20260830205108 18 142 1.6 4.8 0.00 0.03 0.03 80 1013.9
20260830205006 18 142 1.6 4.8 0.00 0.03 0.03 80 1014.1
20260830204906 18 142 0.0 4.8 0.00 0.03 0.03 81 1014.1
20260830204807 18 142 0.0 3.2 0.00 0.03 0.03 81 1014.1
20260830204706 18 142 0.0 3.2 0.00 0.03 0.03 81 1014.1
20260830204606 18 142 0.0 3.2 0.00 0.03 0.03 81 1014.1